N4ASP-13 Weather Reports


time (UTC)temp
F
wind
direction
speed
knots
gust
knots
rain 1hr
in
rain 24hr
in
rain mn
in
humidity
%
barometer
mb
20260508192813 66 134 0.0 0.0 0.00 0.00 0.00 39 1015.4
20260508192707 66 110 0.0 0.0 0.00 0.00 0.00 38 1015.4
20260508192606 66 193 0.0 0.0 0.00 0.00 0.00 39 1015.5
20260508192507 66 85 0.0 0.0 0.00 0.00 0.00 38 1015.5
20260508192405 66 316 0.0 0.0 0.00 0.00 0.00 38 1015.6
20260508192307 66 153 0.0 0.0 0.00 0.00 0.00 40 1015.6
20260508192201 66 183 0.0 0.0 0.00 0.00 0.00 38 1015.6
20260508192059 66 76 0.0 0.0 0.00 0.00 0.00 38 1015.7
20260508192000 66 128 0.0 0.0 0.00 0.00 0.00 39 1015.7
20260508191858 66 152 0.0 0.9 0.00 0.00 0.00 40 1015.8
20260508191756 66 128 0.0 0.9 0.00 0.00 0.00 41 1015.7
20260508191653 66 162 0.0 0.9 0.00 0.00 0.00 41 1015.8
20260508191549 66 178 0.0 0.9 0.00 0.00 0.00 40 1015.8
20260508191451 65 156 0.0 0.9 0.00 0.00 0.00 41 1015.8
20260508191350 65 141 0.0 0.9 0.00 0.00 0.00 45 1015.8
20260508191251 65 105 0.0 0.9 0.00 0.00 0.00 42 1015.8
20260508191147 65 143 0.0 0.9 0.00 0.00 0.00 41 1015.7
20260508191046 65 122 0.0 0.9 0.00 0.00 0.00 40 1015.7
20260508190946 65 134 0.0 0.9 0.00 0.00 0.00 41 1015.7
20260508190846 65 111 0.0 0.9 0.00 0.00 0.00 41 1015.7
20260508190745 66 135 0.0 0.9 0.00 0.00 0.00 39 1015.8
20260508190636 66 155 0.0 0.9 0.00 0.00 0.00 40 1015.8
20260508190536 66 144 0.0 0.9 0.00 0.00 0.00 43 1015.7
20260508190436 66 173 0.0 0.9 0.00 0.00 0.00 41 1015.7
20260508190336 66 117 0.0 0.9 0.00 0.00 0.00 40 1015.8
20260508190234 66 127 0.0 3.5 0.00 0.00 0.00 39 1015.8
20260508190134 66 130 0.0 3.5 0.00 0.00 0.00 39 1015.8
20260508190034 66 134 0.9 4.3 0.00 0.00 0.00 41 1015.9
20260508185931 66 140 0.9 4.3 0.00 0.00 0.00 41 1015.9
20260508185829 66 163 0.9 6.1 0.00 0.00 0.00 41 1015.8
20260508185728 66 148 1.7 6.1 0.00 0.00 0.00 42 1015.9
20260508185622 66 162 1.7 6.1 0.00 0.00 0.00 44 1015.9
20260508185522 66 161 1.7 6.1 0.00 0.00 0.00 43 1015.8
20260508185422 65 169 1.7 6.1 0.00 0.00 0.00 45 1015.9
20260508185323 65 157 2.6 6.1 0.00 0.00 0.00 44 1015.9
20260508185223 65 175 2.6 6.1 0.00 0.00 0.00 40 1015.9
20260508185115 65 160 2.6 6.1 0.00 0.00 0.00 42 1015.9
20260508185017 65 140 2.6 6.1 0.00 0.00 0.00 44 1015.8
20260508184914 65 140 3.5 6.1 0.00 0.00 0.00 43 1015.9
20260508184815 64 135 3.5 7.8 0.00 0.00 0.00 43 1015.9
20260508184712 64 146 3.5 8.7 0.00 0.00 0.00 43 1016.0
20260508184606 64 51 3.5 8.7 0.00 0.00 0.00 42 1016.0
20260508184507 64 45 4.3 8.7 0.00 0.00 0.00 38 1015.9
20260508184406 64 94 4.3 8.7 0.00 0.00 0.00 39 1016.0
20260508184306 64 120 5.2 9.6 0.00 0.00 0.00 40 1016.0
20260508184206 64 128 5.2 9.6 0.00 0.00 0.00 39 1016.0
20260508184100 64 121 6.1 9.6 0.00 0.00 0.00 38 1016.0
20260508184001 64 111 6.1 10.4 0.00 0.00 0.00 39 1016.1
20260508183901 64 111 6.1 10.4 0.00 0.00 0.00 40 1016.0
20260508183800 64 117 6.1 10.4 0.00 0.00 0.00 39 1016.0
20260508183700 64 142 6.1 10.4 0.00 0.00 0.00 38 1016.0
20260508183551 65 151 6.1 10.4 0.00 0.00 0.00 38 1016.0
20260508183451 65 163 6.1 10.4 0.00 0.00 0.00 40 1016.0
20260508183350 65 114 6.1 10.4 0.00 0.00 0.00 40 1016.0
20260508183250 65 129 6.1 10.4 0.00 0.00 0.00 40 1016.0
20260508183150 65 141 5.2 10.4 0.00 0.00 0.00 41 1016.0
20260508183045 65 104 5.2 10.4 0.00 0.00 0.00 41 1016.0
20260508182946 65 133 4.3 10.4 0.00 0.00 0.00 38 1016.0
20260508182847 65 113 4.3 9.6 0.00 0.00 0.00 39 1016.1
20260508182747 65 140 4.3 9.6 0.00 0.00 0.00 38 1016.0
20260508182645 65 99 3.5 9.6 0.00 0.00 0.00 40 1016.1
20260508182539 65 110 2.6 9.6 0.00 0.00 0.00 38 1016.1
20260508182439 65 132 2.6 9.6 0.00 0.00 0.00 40 1016.1
20260508182338 65 146 2.6 9.6 0.00 0.00 0.00 38 1016.1
20260508182238 65 143 2.6 9.6 0.00 0.00 0.00 41 1016.1
20260508182138 65 130 1.7 7.0 0.00 0.00 0.00 39 1016.1
20260508182028 65 233 2.6 8.7 0.00 0.00 0.00 37 1016.1
20260508181927 65 171 2.6 8.7 0.00 0.00 0.00 39 1016.1
20260508181829 65 169 2.6 8.7 0.00 0.00 0.00 40 1016.1
20260508181729 65 121 2.6 8.7 0.00 0.00 0.00 39 1016.2
20260508181629 65 121 3.5 8.7 0.00 0.00 0.00 45 1016.1
20260508181523 65 92 3.5 8.7 0.00 0.00 0.00 44 1016.2
20260508181423 65 92 2.6 8.7 0.00 0.00 0.00 41 1016.1
20260508181324 64 72 3.5 8.7 0.00 0.00 0.00 39 1016.2
20260508181224 64 167 3.5 8.7 0.00 0.00 0.00 41 1016.2
20260508181123 64 179 3.5 8.7 0.00 0.00 0.00 40 1016.2
20260508181017 64 163 3.5 8.7 0.00 0.00 0.00 43 1016.2
20260508180915 64 99 3.5 7.8 0.00 0.00 0.00 42 1016.2
20260508180817 64 143 3.5 7.8 0.00 0.00 0.00 43 1016.1
20260508180717 64 96 3.5 7.8 0.00 0.00 0.00 39 1016.1
20260508180616 64 102 3.5 7.8 0.00 0.00 0.00 39 1016.2
20260508180507 64 126 3.5 7.8 0.00 0.00 0.00 38 1016.2
20260508180407 64 155 4.3 9.6 0.00 0.00 0.00 39 1016.3
20260508180307 64 141 4.3 11.3 0.00 0.00 0.00 40 1016.2
20260508180205 64 159 5.2 11.3 0.00 0.00 0.00 39 1016.3
20260508180106 64 180 5.2 11.3 0.00 0.00 0.00 44 1016.3
20260508175959 63 111 5.2 11.3 0.00 0.00 0.00 40 1016.3
20260508175900 63 160 6.1 11.3 0.00 0.00 0.00 40 1016.3
20260508175800 63 123 6.1 11.3 0.00 0.00 0.00 40 1016.4
20260508175700 63 101 6.1 11.3 0.00 0.00 0.00 41 1016.3
20260508175600 64 95 6.1 11.3 0.00 0.00 0.00 38 1016.4
20260508175453 64 81 6.1 11.3 0.00 0.00 0.00 39 1016.4
20260508175354 64 117 6.1 11.3 0.00 0.00 0.00 40 1016.4
20260508175255 64 120 6.1 9.6 0.00 0.00 0.00 39 1016.4
20260508175155 64 92 6.1 9.6 0.00 0.00 0.00 41 1016.4
20260508175054 64 87 6.1 9.6 0.00 0.00 0.00 40 1016.5
20260508174947 64 103 5.2 9.6 0.00 0.00 0.00 38 1016.5
20260508174843 64 80 5.2 9.6 0.00 0.00 0.00 36 1016.5
20260508174743 65 80 5.2 9.6 0.00 0.00 0.00 38 1016.5
20260508174644 65 104 5.2 9.6 0.00 0.00 0.00 38 1016.5
20260508174544 65 103 4.3 9.6 0.00 0.00 0.00 39 1016.4
20260508174438 65 103 4.3 8.7 0.00 0.00 0.00 43 1016.5
20260508174338 65 117 3.5 8.7 0.00 0.00 0.00 39 1016.5
20260508174239 65 93 3.5 8.7 0.00 0.00 0.00 39 1016.5
20260508174137 65 121 3.5 8.7 0.00 0.00 0.00 40 1016.5
20260508174038 65 125 3.5 8.7 0.00 0.00 0.00 37 1016.6
20260508173933 65 163 2.6 8.7 0.00 0.00 0.00 40 1016.6
20260508173831 65 163 3.5 8.7 0.00 0.00 0.00 39 1016.6
20260508173733 66 138 2.6 8.7 0.00 0.00 0.00 40 1016.6
20260508173631 66 105 2.6 7.8 0.00 0.00 0.00 41 1016.5
20260508173533 66 339 2.6 7.8 0.00 0.00 0.00 42 1016.6
20260508173428 65 264 2.6 7.8 0.00 0.00 0.00 40 1016.5
20260508173327 65 175 2.6 7.8 0.00 0.00 0.00 43 1016.6
20260508173223 65 159 3.5 7.8 0.00 0.00 0.00 41 1016.6
20260508173125 65 207 3.5 7.8 0.00 0.00 0.00 40 1016.6
20260508173022 65 250 3.5 7.8 0.00 0.00 0.00 40 1016.6
20260508172918 65 111 3.5 7.8 0.00 0.00 0.00 38 1016.6
20260508172815 65 136 2.6 7.8 0.00 0.00 0.00 38 1016.6
20260508172716 65 198 2.6 7.8 0.00 0.00 0.00 39 1016.7
20260508172616 65 128 2.6 7.8 0.00 0.00 0.00 40 1016.7
20260508172517 65 134 2.6 7.8 0.00 0.00 0.00 36 1016.7
20260508172409 65 185 2.6 7.8 0.00 0.00 0.00 42 1016.7
20260508172309 65 227 2.6 7.8 0.00 0.00 0.00 39 1016.9
20260508172211 65 198 2.6 6.1 0.00 0.00 0.00 39 1016.9
20260508172110 65 188 2.6 6.1 0.00 0.00 0.00 38 1016.7
20260508172011 65 132 2.6 6.1 0.00 0.00 0.00 39 1016.9
20260508171859 65 217 2.6 6.1 0.00 0.00 0.00 37 1016.9
20260508171801 65 196 2.6 6.1 0.00 0.00 0.00 40 1016.9
20260508171700 65 129 2.6 6.1 0.00 0.00 0.00 41 1016.7
20260508171559 65 101 3.5 7.8 0.00 0.00 0.00 38 1016.9
20260508171501 65 185 3.5 7.8 0.00 0.00 0.00 42 1016.7
20260508171357 65 131 3.5 7.8 0.00 0.00 0.00 38 1016.9
20260508171254 65 140 2.6 7.8 0.00 0.00 0.00 39 1016.9
20260508171155 64 110 2.6 7.8 0.00 0.00 0.00 42 1016.9
20260508171054 64 110 2.6 7.8 0.00 0.00 0.00 42 1017.0
20260508170954 64 110 3.5 7.8 0.00 0.00 0.00 40 1016.9
20260508170850 64 111 3.5 7.8 0.00 0.00 0.00 41 1016.9
20260508170748 64 110 3.5 7.8 0.00 0.00 0.00 41 1017.0
20260508170649 64 109 2.6 7.8 0.00 0.00 0.00 40 1017.0
20260508170547 64 109 2.6 7.0 0.00 0.00 0.00 44 1017.0
20260508170448 64 96 3.5 7.8 0.00 0.00 0.00 44 1016.9
20260508170342 64 115 3.5 8.7 0.00 0.00 0.00 41 1016.9
20260508170242 64 216 4.3 8.7 0.00 0.00 0.00 43 1017.0
20260508170139 64 170 3.5 8.7 0.00 0.00 0.00 41 1017.2
20260508170040 64 127 3.5 8.7 0.00 0.00 0.00 40 1017.0
20260508165939 64 116 3.5 8.7 0.00 0.00 0.00 41 1017.0
20260508165840 64 136 3.5 8.7 0.00 0.00 0.00 40 1017.1
20260508165740 64 165 2.6 8.7 0.00 0.00 0.00 41 1017.0
20260508165641 64 138 2.6 8.7 0.00 0.00 0.00 40 1017.0
20260508165540 64 140 2.6 8.7 0.00 0.00 0.00 43 1017.0
20260508165439 64 118 2.6 8.7 0.00 0.00 0.00 46 1017.0
20260508165340 64 105 2.6 8.7 0.00 0.00 0.00 44 1017.0
20260508165240 64 156 2.6 7.8 0.00 0.00 0.00 40 1017.0
20260508165139 64 141 2.6 6.1 0.00 0.00 0.00 44 1017.0
20260508165039 64 167 2.6 6.1 0.00 0.00 0.00 44 1017.1
20260508164941 64 120 3.5 7.8 0.00 0.00 0.00 43 1017.0
20260508164840 64 120 3.5 8.7 0.00 0.00 0.00 43 1017.0
20260508164743 64 121 4.3 8.7 0.00 0.00 0.00 41 1017.1
20260508164637 64 114 4.3 8.7 0.00 0.00 0.00 44 1017.0
20260508164535 64 113 3.5 8.7 0.00 0.00 0.00 42 1017.1
20260508164434 64 116 3.5 8.7 0.00 0.00 0.00 42 1017.1
20260508164334 64 174 2.6 8.7 0.00 0.00 0.00 43 1017.1
20260508164234 64 134 2.6 8.7 0.00 0.00 0.00 46 1017.1
20260508164128 64 149 3.5 8.7 0.00 0.00 0.00 44 1017.2
20260508164027 64 150 3.5 8.7 0.00 0.00 0.00 47 1017.1
20260508163929 63 126 2.6 8.7 0.00 0.00 0.00 46 1017.1
20260508163828 63 98 2.6 7.8 0.00 0.00 0.00 48 1017.1
20260508163729 63 105 2.6 6.1 0.00 0.00 0.00 49 1017.1
20260508163623 63 51 2.6 6.1 0.00 0.00 0.00 52 1017.1
20260508163523 63 24 2.6 6.1 0.00 0.00 0.00 47 1017.1
20260508163422 62 22 2.6 6.1 0.00 0.00 0.00 47 1017.1
20260508163323 62 20 3.5 6.1 0.00 0.00 0.00 48 1017.1
20260508163222 62 20 2.6 6.1 0.00 0.00 0.00 47 1017.1
20260508163122 62 19 2.6 6.1 0.00 0.00 0.00 47 1017.2
20260508163022 62 327 2.6 6.1 0.00 0.00 0.00 46 1017.3
20260508162919 62 327 2.6 6.1 0.00 0.00 0.00 45 1017.3
20260508162820 62 319 2.6 6.1 0.00 0.00 0.00 45 1017.3
20260508162719 62 323 2.6 6.1 0.00 0.00 0.00 44 1017.2
20260508162617 62 98 2.6 6.1 0.00 0.00 0.00 46 1017.4
20260508162515 62 121 2.6 6.1 0.00 0.00 0.00 46 1017.3
20260508162416 62 121 2.6 7.0 0.00 0.00 0.00 47 1017.4
20260508162313 62 117 2.6 7.0 0.00 0.00 0.00 47 1017.4
20260508162213 62 113 2.6 7.0 0.00 0.00 0.00 45 1017.4
20260508162115 62 113 2.6 7.0 0.00 0.00 0.00 47 1017.4
20260508162014 62 113 3.5 7.0 0.00 0.00 0.00 46 1017.4
20260508161913 62 113 3.5 7.0 0.00 0.00 0.00 46 1017.4
20260508161815 62 113 3.5 7.0 0.00 0.00 0.00 48 1017.6
20260508161713 62 124 3.5 7.0 0.00 0.00 0.00 48 1017.6
20260508161612 62 125 3.5 7.0 0.00 0.00 0.00 46 1017.5
20260508161511 62 125 4.3 7.0 0.00 0.00 0.00 46 1017.6
20260508161412 62 142 3.5 7.0 0.00 0.00 0.00 50 1017.7
20260508161311 62 149 3.5 7.0 0.00 0.00 0.00 51 1017.7
20260508161213 62 78 3.5 7.0 0.00 0.00 0.00 51 1017.7
20260508161109 62 61 3.5 7.0 0.00 0.00 0.00 49 1017.7
20260508161010 62 95 3.5 7.0 0.00 0.00 0.00 48 1017.7
20260508160909 62 108 3.5 7.0 0.00 0.00 0.00 48 1017.7
20260508160810 62 97 2.6 7.0 0.00 0.00 0.00 51 1017.7
20260508160711 62 122 2.6 6.1 0.00 0.00 0.00 49 1017.8
20260508160609 62 132 1.7 6.1 0.00 0.00 0.00 50 1017.8
20260508160509 62 47 1.7 4.3 0.00 0.00 0.00 49 1017.8
20260508160412 62 331 1.7 4.3 0.00 0.00 0.00 46 1017.7
20260508160310 62 324 1.7 4.3 0.00 0.00 0.00 46 1017.8
20260508160206 62 324 2.6 4.3 0.00 0.00 0.00 47 1017.8
20260508160103 62 325 2.6 4.3 0.00 0.00 0.00 50 1017.8
20260508160004 62 355 2.6 5.2 0.00 0.00 0.00 48 1017.9
20260508155904 62 46 2.6 5.2 0.00 0.00 0.00 50 1017.9
20260508155804 62 71 2.6 5.2 0.00 0.00 0.00 48 1017.9
20260508155659 62 270 2.6 5.2 0.00 0.00 0.00 47 1017.8
20260508155600 62 310 2.6 5.2 0.00 0.00 0.00 48 1017.9
20260508155459 62 54 2.6 5.2 0.00 0.00 0.00 47 1017.8
20260508155400 62 53 1.7 5.2 0.00 0.00 0.00 50 1017.9
20260508155300 62 40 1.7 5.2 0.00 0.00 0.00 50 1017.8
20260508155200 62 44 1.7 5.2 0.00 0.00 0.00 50 1017.9
20260508155059 62 48 1.7 5.2 0.00 0.00 0.00 50 1017.9
20260508155001 61 88 1.7 4.3 0.00 0.00 0.00 50 1017.9
20260508154859 61 89 1.7 4.3 0.00 0.00 0.00 48 1017.8
20260508154800 61 61 1.7 4.3 0.00 0.00 0.00 49 1018.0
20260508154659 61 56 1.7 4.3 0.00 0.00 0.00 47 1017.9
20260508154559 61 5 1.7 4.3 0.00 0.00 0.00 47 1017.8
20260508154459 61 340 1.7 4.3 0.00 0.00 0.00 47 1017.8
20260508154400 61 340 1.7 7.0 0.00 0.00 0.00 47 1017.9
20260508154300 61 342 2.6 7.0 0.00 0.00 0.00 47 1017.9
20260508154200 61 344 2.6 7.0 0.00 0.00 0.00 48 1018.0
20260508154101 61 311 2.6 7.0 0.00 0.00 0.00 49 1018.0
20260508153959 61 46 2.6 7.0 0.00 0.00 0.00 49 1017.9
20260508153901 61 46 2.6 7.0 0.00 0.00 0.00 51 1017.9
20260508153800 61 78 2.6 7.0 0.00 0.00 0.00 49 1018.0
20260508153700 61 60 2.6 7.0 0.00 0.00 0.00 50 1018.0
20260508153559 61 265 2.6 7.0 0.00 0.00 0.00 47 1018.0
20260508153459 61 289 3.5 7.0 0.00 0.00 0.00 48 1018.0
20260508153400 61 5 2.6 7.0 0.00 0.00 0.00 48 1018.0
20260508153300 61 342 2.6 7.0 0.00 0.00 0.00 47 1017.9
20260508153200 61 309 2.6 7.0 0.00 0.00 0.00 48 1018.0
20260508153056 61 294 3.5 7.0 0.00 0.00 0.00 49 1018.0
20260508152955 61 355 3.5 7.0 0.00 0.00 0.00 50 1017.9
20260508152855 61 13 3.5 7.0 0.00 0.00 0.00 48 1017.9
20260508152756 61 311 3.5 7.0 0.00 0.00 0.00 48 1018.0
20260508152655 61 344 3.5 7.0 0.00 0.00 0.00 46 1018.0
20260508152556 61 327 3.5 7.0 0.00 0.00 0.00 47 1018.0
20260508152457 61 0 2.6 7.0 0.00 0.00 0.00 47 1018.0
20260508152355 62 331 2.6 7.0 0.00 0.00 0.00 49 1018.0
20260508152255 62 325 2.6 7.0 0.00 0.00 0.00 48 1018.1
20260508152155 62 343 2.6 7.0 0.00 0.00 0.00 49 1018.1
20260508152056 62 52 2.6 7.0 0.00 0.00 0.00 46 1018.1
20260508151955 62 74 1.7 7.0 0.00 0.00 0.00 46 1018.1
20260508151856 62 74 1.7 7.0 0.00 0.00 0.00 45 1018.1
20260508151756 62 75 1.7 4.3 0.00 0.00 0.00 50 1018.1
20260508151655 62 330 1.7 4.3 0.00 0.00 0.00 48 1018.2
20260508151556 62 76 1.7 5.2 0.00 0.00 0.00 49 1018.1
20260508151457 62 45 1.7 5.2 0.00 0.00 0.00 49 1018.1
20260508151355 62 38 1.7 5.2 0.00 0.00 0.00 48 1018.1
20260508151255 62 9 1.7 5.2 0.00 0.00 0.00 49 1018.2
20260508151156 62 5 1.7 5.2 0.00 0.00 0.00 47 1018.1
20260508151056 61 9 2.6 5.2 0.00 0.00 0.00 46 1018.1
20260508150956 61 13 2.6 5.2 0.00 0.00 0.00 47 1018.1
20260508150855 62 23 1.7 5.2 0.00 0.00 0.00 48 1018.1
20260508150755 62 32 1.7 5.2 0.00 0.00 0.00 46 1018.1
20260508150655 62 34 1.7 5.2 0.00 0.00 0.00 51 1018.1
20260508150557 61 355 1.7 4.3 0.00 0.00 0.00 52 1018.1
20260508150455 61 355 1.7 4.3 0.00 0.00 0.00 49 1018.1
20260508150356 61 355 1.7 4.3 0.00 0.00 0.00 47 1018.1
20260508150256 61 38 1.7 4.3 0.00 0.00 0.00 48 1018.1
20260508150156 61 24 1.7 4.3 0.00 0.00 0.00 49 1018.2
20260508150056 61 28 1.7 4.3 0.00 0.00 0.00 48 1018.2
20260508145957 61 5 1.7 3.5 0.00 0.00 0.00 48 1018.1
20260508145856 61 328 0.9 3.5 0.00 0.00 0.00 49 1018.1
20260508145752 61 292 0.9 3.5 0.00 0.00 0.00 50 1018.2
20260508145652 61 286 0.9 3.5 0.00 0.00 0.00 51 1018.2
20260508145551 61 286 0.9 3.5 0.00 0.00 0.00 49 1018.1
20260508145452 61 286 0.9 3.5 0.00 0.00 0.00 49 1018.1
20260508145352 60 54 0.9 3.5 0.00 0.00 0.00 48 1018.2
20260508145253 60 55 0.9 3.5 0.00 0.00 0.00 48 1018.2
20260508145153 60 76 0.9 3.5 0.00 0.00 0.00 49 1018.1
20260508145052 60 127 0.9 3.5 0.00 0.00 0.00 50 1018.1
20260508144951 60 336 0.9 3.5 0.00 0.00 0.00 50 1018.2
20260508144853 59 336 0.9 3.5 0.00 0.00 0.00 50 1018.2
20260508144752 59 332 1.7 3.5 0.00 0.00 0.00 46 1018.2
20260508144652 59 212 1.7 3.5 0.00 0.00 0.00 48 1018.2
20260508144551 59 213 1.7 5.2 0.00 0.00 0.00 49 1018.2
20260508144451 59 213 1.7 7.8 0.00 0.00 0.00 49 1018.2
20260508144352 58 296 1.7 7.8 0.00 0.00 0.00 50 1018.1
20260508144253 58 223 1.7 7.8 0.00 0.00 0.00 50 1018.2
20260508144151 58 221 2.6 7.8 0.00 0.00 0.00 54 1018.1
20260508144053 58 12 2.6 7.8 0.00 0.00 0.00 55 1018.2
20260508143953 58 332 2.6 7.8 0.00 0.00 0.00 52 1018.1
20260508143852 58 332 2.6 7.8 0.00 0.00 0.00 53 1018.3
20260508143753 58 334 2.6 7.8 0.00 0.00 0.00 51 1018.2
20260508143651 58 281 2.6 7.8 0.00 0.00 0.00 50 1018.1
20260508143551 58 273 2.6 7.8 0.00 0.00 0.00 52 1018.1
20260508143452 58 334 2.6 7.0 0.00 0.00 0.00 50 1018.2
20260508143352 58 336 2.6 7.0 0.00 0.00 0.00 50 1018.1
20260508143253 58 330 2.6 7.0 0.00 0.00 0.00 50 1018.2
20260508143151 58 315 2.6 7.0 0.00 0.00 0.00 50 1018.1
20260508143051 58 304 2.6 7.0 0.00 0.00 0.00 50 1018.2
20260508142951 58 313 1.7 7.0 0.00 0.00 0.00 52 1018.2
20260508142851 58 318 1.7 4.3 0.00 0.00 0.00 53 1018.1
20260508142751 58 5 1.7 4.3 0.00 0.00 0.00 52 1018.2
20260508142652 58 328 1.7 4.3 0.00 0.00 0.00 50 1018.2
20260508142552 58 331 1.7 4.3 0.00 0.00 0.00 49 1018.1
20260508142448 58 306 1.7 4.3 0.00 0.00 0.00 48 1018.1
20260508142347 58 297 1.7 3.5 0.00 0.00 0.00 49 1018.2
20260508142249 57 297 1.7 3.5 0.00 0.00 0.00 48 1018.1
20260508142147 57 297 1.7 3.5 0.00 0.00 0.00 48 1018.1
20260508142049 57 290 1.7 5.2 0.00 0.00 0.00 50 1018.1
20260508141948 57 309 2.6 5.2 0.00 0.00 0.00 52 1018.1
20260508141847 57 310 2.6 5.2 0.00 0.00 0.00 51 1018.2
20260508141748 57 317 2.6 5.2 0.00 0.00 0.00 51 1018.1
20260508141648 57 312 2.6 6.1 0.00 0.00 0.00 49 1018.1
20260508141548 57 291 2.6 6.1 0.00 0.00 0.00 51 1018.1
20260508141447 57 300 2.6 6.1 0.00 0.00 0.00 53 1018.1
20260508141347 57 336 2.6 6.1 0.00 0.00 0.00 52 1018.1
20260508141248 57 336 2.6 6.1 0.00 0.00 0.00 51 1018.1
20260508141147 57 282 2.6 6.1 0.00 0.00 0.00 52 1018.1
20260508141049 57 351 2.6 6.1 0.00 0.00 0.00 51 1018.1
20260508140949 57 340 2.6 6.1 0.00 0.00 0.00 50 1018.2
20260508140848 57 330 2.6 6.1 0.00 0.00 0.00 53 1018.1
20260508140747 56 309 1.7 6.1 0.00 0.00 0.00 52 1018.1
20260508140647 56 327 1.7 5.2 0.00 0.00 0.00 52 1018.1
20260508140549 56 337 1.7 5.2 0.00 0.00 0.00 53 1018.2
20260508140448 56 153 1.7 4.3 0.00 0.00 0.00 53 1018.2
20260508140348 56 275 1.7 4.3 0.00 0.00 0.00 54 1018.1
20260508140249 56 273 1.7 4.3 0.00 0.00 0.00 52 1018.1
20260508140147 56 273 1.7 4.3 0.00 0.00 0.00 51 1018.2
20260508140048 56 309 1.7 4.3 0.00 0.00 0.00 52 1018.1
20260508135948 56 305 1.7 4.3 0.00 0.00 0.00 52 1018.2
20260508135840 56 229 1.7 4.3 0.00 0.00 0.00 52 1018.1
20260508135740 56 299 1.7 4.3 0.00 0.00 0.00 53 1018.1
20260508135540 56 298 1.7 3.5 0.00 0.00 0.00 52 1018.0
20260508135439 56 297 1.7 3.5 0.00 0.00 0.00 54 1018.1
20260508135341 56 294 1.7 3.5 0.00 0.00 0.00 54 1018.1
20260508135239 56 291 1.7 3.5 0.00 0.00 0.00 53 1018.1
20260508135140 56 291 1.7 3.5 0.00 0.00 0.00 52 1018.0
20260508135039 55 311 1.7 3.5 0.00 0.00 0.00 53 1018.0
20260508134940 55 312 1.7 3.5 0.00 0.00 0.00 54 1018.0
20260508134841 55 312 1.7 4.3 0.00 0.00 0.00 55 1017.9
20260508134739 55 312 1.7 4.3 0.00 0.00 0.00 55 1018.1
20260508134641 55 313 2.6 4.3 0.00 0.00 0.00 55 1017.9
20260508134541 55 313 2.6 5.2 0.00 0.00 0.00 53 1018.0
20260508134440 55 312 2.6 5.2 0.00 0.00 0.00 52 1018.0
20260508134340 55 312 2.6 5.2 0.00 0.00 0.00 54 1017.9
20260508134241 55 313 2.6 5.2 0.00 0.00 0.00 53 1017.9
20260508134139 55 313 2.6 5.2 0.00 0.00 0.00 55 1018.0
20260508134039 55 295 2.6 5.2 0.00 0.00 0.00 55 1017.9
20260508133940 55 274 2.6 5.2 0.00 0.00 0.00 56 1017.9
20260508133840 55 289 2.6 5.2 0.00 0.00 0.00 57 1017.9
20260508133741 55 319 2.6 5.2 0.00 0.00 0.00 54 1017.8
20260508133639 55 306 2.6 5.2 0.00 0.00 0.00 55 1017.8
20260508133539 55 317 2.6 4.3 0.00 0.00 0.00 55 1017.8
20260508133439 55 296 2.6 4.3 0.00 0.00 0.00 56 1017.8
20260508133340 55 287 2.6 4.3 0.00 0.00 0.00 55 1017.8
20260508133235 55 317 2.6 4.3 0.00 0.00 0.00 55 1017.7
20260508133136 55 307 2.6 4.3 0.00 0.00 0.00 55 1017.9
20260508133035 55 316 2.6 5.2 0.00 0.00 0.00 57 1017.8
20260508132935 55 279 2.6 5.2 0.00 0.00 0.00 57 1017.8
20260508132831 55 321 2.6 5.2 0.00 0.00 0.00 58 1017.8
20260508132724 55 328 2.6 5.2 0.00 0.00 0.00 57 1017.8
20260508132625 55 308 2.6 5.2 0.00 0.00 0.00 59 1017.8
20260508132528 55 310 2.6 5.2 0.00 0.00 0.00 56 1017.8
20260508132425 55 333 2.6 5.2 0.00 0.00 0.00 57 1017.7
20260508132322 55 337 2.6 5.2 0.00 0.00 0.00 58 1017.8
20260508132217 54 337 2.6 5.2 0.00 0.00 0.00 58 1017.8
20260508132117 54 317 2.6 5.2 0.00 0.00 0.00 57 1017.8
20260508132019 54 315 2.6 5.2 0.00 0.00 0.00 57 1017.8
20260508131918 54 312 2.6 5.2 0.00 0.00 0.00 58 1017.8
20260508131815 54 337 2.6 4.3 0.00 0.00 0.00 58 1017.8
20260508131713 54 348 2.6 4.3 0.00 0.00 0.00 58 1017.8
20260508131612 54 309 2.6 4.3 0.00 0.00 0.00 57 1017.8
20260508131512 54 290 2.6 4.3 0.00 0.00 0.00 58 1017.9
20260508131411 54 295 2.6 4.3 0.00 0.00 0.00 58 1017.8
20260508131309 54 327 1.7 4.3 0.00 0.00 0.00 58 1017.7
20260508131202 54 338 1.7 4.3 0.00 0.00 0.00 58 1017.7
20260508131102 54 340 1.7 4.3 0.00 0.00 0.00 58 1017.8
20260508131002 54 340 1.7 4.3 0.00 0.00 0.00 57 1017.7
20260508130902 54 355 2.6 4.3 0.00 0.00 0.00 58 1017.7
20260508130800 54 313 2.6 4.3 0.00 0.00 0.00 58 1017.7
20260508130655 54 313 2.6 4.3 0.00 0.00 0.00 58 1017.7
20260508130556 54 325 2.6 4.3 0.00 0.00 0.00 59 1017.7
20260508130456 54 319 2.6 4.3 0.00 0.00 0.00 58 1017.7
20260508130355 54 338 2.6 4.3 0.00 0.00 0.00 58 1017.8
20260508130254 54 309 2.6 4.3 0.00 0.00 0.00 59 1017.7
20260508130150 54 319 2.6 4.3 0.00 0.00 0.00 59 1017.8
20260508130050 54 317 2.6 4.3 0.00 0.00 0.00 58 1017.8
20260508125949 54 323 2.6 4.3 0.00 0.00 0.00 59 1017.8
20260508125851 54 355 2.6 4.3 0.00 0.00 0.00 58 1017.8
20260508125748 54 350 2.6 4.3 0.00 0.00 0.00 57 1017.8
20260508125639 54 336 2.6 4.3 0.00 0.00 0.00 58 1017.7
20260508125539 54 300 1.7 4.3 0.00 0.00 0.00 58 1017.8
20260508125437 54 300 1.7 4.3 0.00 0.00 0.00 59 1017.8
20260508125338 54 304 1.7 4.3 0.00 0.00 0.00 57 1017.8
20260508125236 54 304 2.6 4.3 0.00 0.00 0.00 58 1017.8
20260508125135 54 303 1.7 4.3 0.00 0.00 0.00 58 1017.8
20260508125033 54 306 1.7 4.3 0.00 0.00 0.00 59 1017.8
20260508124932 54 343 1.7 4.3 0.00 0.00 0.00 59 1017.8
20260508124832 54 342 1.7 4.3 0.00 0.00 0.00 62 1017.8
20260508124729 53 271 1.7 4.3 0.00 0.00 0.00 61 1017.8
20260508124627 53 344 1.7 4.3 0.00 0.00 0.00 62 1017.7
20260508124525 53 347 1.7 4.3 0.00 0.00 0.00 63 1017.8
20260508124425 53 351 1.7 4.3 0.00 0.00 0.00 60 1017.8
20260508124326 53 347 2.6 4.3 0.00 0.00 0.00 60 1017.7
20260508124224 53 5 1.7 3.5 0.00 0.00 0.00 61 1017.7
20260508124120 53 328 1.7 3.5 0.00 0.00 0.00 61 1017.7
20260508124019 53 328 2.6 3.5 0.00 0.00 0.00 62 1017.6
20260508123916 53 349 2.6 3.5 0.00 0.00 0.00 63 1017.6
20260508123815 53 349 2.6 3.5 0.00 0.00 0.00 63 1017.7
20260508123714 53 350 2.6 3.5 0.00 0.01 0.00 64 1017.7
20260508123611 53 333 2.6 3.5 0.00 0.01 0.00 64 1017.7
20260508123512 53 336 2.6 3.5 0.00 0.01 0.00 65 1017.7
20260508123409 53 323 2.6 3.5 0.00 0.01 0.00 64 1017.6
20260508123310 53 350 2.6 3.5 0.00 0.01 0.00 64 1017.7
20260508123208 53 342 2.6 3.5 0.00 0.01 0.00 64 1017.7
20260508123101 52 341 2.6 3.5 0.00 0.01 0.00 63 1017.6
20260508123001 52 280 2.6 3.5 0.00 0.01 0.00 63 1017.6
20260508122905 52 329 2.6 3.5 0.00 0.01 0.00 64 1017.6
20260508122802 52 344 2.6 3.5 0.00 0.01 0.00 66 1017.7
20260508122702 52 54 2.6 3.5 0.00 0.01 0.00 66 1017.5
20260508122553 52 54 2.6 4.3 0.00 0.01 0.00 66 1017.5
20260508122451 52 82 2.6 4.3 0.00 0.01 0.00 66 1017.6
20260508122352 52 344 2.6 4.3 0.00 0.01 0.00 65 1017.5
20260508122251 52 345 2.6 6.1 0.00 0.01 0.00 64 1017.6
20260508122152 52 344 2.6 6.1 0.00 0.01 0.00 64 1017.6
20260508122049 52 345 2.6 6.1 0.00 0.01 0.00 63 1017.5
20260508121950 52 344 2.6 6.1 0.00 0.01 0.00 65 1017.6
20260508121848 51 344 2.6 6.1 0.00 0.02 0.00 63 1017.5
20260508121748 51 344 2.6 6.1 0.00 0.02 0.00 63 1017.5
20260508121645 51 313 2.6 6.1 0.00 0.02 0.00 63 1017.4
20260508121541 51 295 2.6 6.1 0.00 0.02 0.00 63 1017.4
20260508121443 51 306 2.6 6.1 0.00 0.02 0.00 62 1017.4
20260508121341 51 304 2.6 6.1 0.00 0.02 0.00 63 1017.4
20260508121242 51 286 2.6 4.3 0.00 0.02 0.00 63 1017.4
20260508121139 51 301 2.6 3.5 0.00 0.02 0.00 64 1017.5
20260508121030 51 302 1.7 3.5 0.00 0.03 0.00 64 1017.4
20260508120930 51 302 1.7 3.5 0.00 0.03 0.00 64 1017.4
20260508120831 51 302 1.7 3.5 0.00 0.03 0.00 63 1017.4
20260508120729 51 315 1.7 3.5 0.00 0.03 0.00 63 1017.4
20260508120630 51 306 1.7 3.5 0.00 0.03 0.00 66 1017.4
20260508120523 51 305 1.7 3.5 0.00 0.03 0.00 65 1017.4
20260508120424 51 291 1.7 3.5 0.00 0.03 0.00 65 1017.3
20260508120324 51 291 1.7 3.5 0.00 0.03 0.00 64 1017.3
20260508120224 51 292 1.7 3.5 0.00 0.03 0.00 66 1017.3
20260508120124 51 296 1.7 3.5 0.00 0.03 0.00 66 1017.3
20260508120020 51 295 1.7 3.5 0.00 0.03 0.00 65 1017.2
20260508115918 51 296 1.7 3.5 0.00 0.04 0.00 66 1017.3
20260508115818 51 304 1.7 3.5 0.00 0.04 0.00 66 1017.3
20260508115717 51 305 1.7 3.5 0.00 0.04 0.00 66 1017.3
20260508115617 51 288 1.7 3.5 0.00 0.04 0.00 67 1017.2
20260508115511 51 336 1.7 3.5 0.00 0.04 0.00 66 1017.2
20260508115409 51 338 1.7 3.5 0.00 0.04 0.00 65 1017.3
20260508115309 51 340 1.7 3.5 0.00 0.04 0.00 65 1017.2
20260508115210 51 340 1.7 2.6 0.00 0.04 0.00 65 1017.3
20260508115107 51 314 1.7 2.6 0.00 0.04 0.00 65 1017.1
20260508115002 51 313 1.7 2.6 0.00 0.04 0.00 65 1017.2
20260508114901 51 313 0.9 2.6 0.00 0.04 0.00 65 1017.1
20260508114802 51 314 0.9 2.6 0.00 0.04 0.00 66 1017.1
20260508114702 51 313 0.9 2.6 0.00 0.04 0.00 67 1017.1
20260508114602 51 313 0.9 2.6 0.00 0.04 0.00 68 1017.1
20260508114459 51 312 0.9 2.6 0.00 0.04 0.00 68 1017.0
20260508114400 51 298 0.9 2.6 0.00 0.04 0.00 67 1017.0
20260508114259 51 289 0.9 2.6 0.00 0.04 0.00 69 1016.9
20260508114158 51 202 0.9 3.5 0.00 0.04 0.00 72 1017.0
20260508114056 51 202 0.9 3.5 0.00 0.04 0.00 72 1017.0
20260508113948 51 187 0.9 3.5 0.00 0.04 0.00 70 1017.0
20260508113846 51 180 0.9 3.5 0.00 0.04 0.00 69 1016.9
20260508113745 51 180 1.7 3.5 0.00 0.04 0.00 67 1016.9
20260508113646 51 181 1.7 3.5 0.00 0.04 0.00 68 1017.0
20260508113546 51 181 1.7 3.5 0.00 0.04 0.00 67 1016.9
20260508113445 51 181 1.7 3.5 0.00 0.04 0.00 68 1016.9
20260508113344 50 263 1.7 3.5 0.00 0.04 0.00 67 1016.9
20260508113243 50 263 0.9 3.5 0.00 0.04 0.00 67 1016.7
20260508113141 50 257 0.9 2.6 0.00 0.04 0.00 67 1016.9
20260508113039 50 255 0.9 2.6 0.00 0.04 0.00 67 1016.9
20260508112938 50 255 0.9 2.6 0.00 0.04 0.00 68 1016.7
20260508112838 50 255 0.9 2.6 0.00 0.05 0.00 68 1016.7
20260508112735 50 254 0.0 2.6 0.00 0.05 0.00 68 1016.7
20260508112636 50 251 0.0 2.6 0.00 0.05 0.00 69 1016.6
20260508112534 50 240 0.0 0.0 0.00 0.05 0.00 69 1016.6
20260508112425 50 240 0.0 0.0 0.00 0.05 0.00 69 1016.7
20260508112325 50 240 0.0 0.0 0.00 0.05 0.00 69 1016.6
20260508112227 50 240 0.0 0.0 0.00 0.05 0.00 68 1016.6
20260508112126 49 240 0.0 0.0 0.00 0.05 0.00 68 1016.6
20260508112023 49 240 0.0 0.0 0.00 0.05 0.00 69 1016.6
20260508111924 49 240 0.0 0.0 0.00 0.05 0.00 70 1016.5
20260508111822 49 240 0.0 0.0 0.00 0.05 0.00 71 1016.5
20260508111722 49 240 0.0 0.0 0.00 0.05 0.00 71 1016.6
20260508111619 49 240 0.0 0.0 0.00 0.05 0.00 72 1016.6
20260508111518 49 240 0.0 0.0 0.00 0.05 0.00 72 1016.5
20260508111413 49 240 0.0 0.0 0.00 0.06 0.00 72 1016.6
20260508111312 49 240 0.0 0.0 0.00 0.06 0.00 71 1016.6
20260508111209 49 240 0.0 0.0 0.00 0.06 0.00 71 1016.5
20260508111110 48 240 0.0 0.0 0.00 0.06 0.00 71 1016.5
20260508111007 48 240 0.0 0.0 0.00 0.06 0.00 72 1016.4
20260508110901 48 240 0.0 0.0 0.00 0.06 0.00 71 1016.4
20260508110802 48 240 0.0 0.0 0.00 0.06 0.00 71 1016.4
20260508110701 48 240 0.0 0.0 0.00 0.06 0.00 71 1016.4
20260508110600 48 240 0.0 0.0 0.00 0.06 0.00 70 1016.4
20260508110457 48 240 0.0 0.0 0.00 0.06 0.00 71 1016.4
20260508110359 48 240 0.0 0.0 0.00 0.06 0.00 70 1016.4
20260508110255 48 240 0.0 0.0 0.00 0.06 0.00 71 1016.4
20260508110154 48 240 0.0 0.9 0.00 0.06 0.00 71 1016.4
20260508110053 48 240 0.0 0.9 0.00 0.07 0.00 71 1016.3
20260508105951 47 240 0.0 0.9 0.00 0.07 0.00 70 1016.3
20260508105852 47 240 0.0 0.9 0.00 0.07 0.00 70 1016.3
20260508105750 47 240 0.0 1.7 0.00 0.07 0.00 71 1016.2
20260508105647 47 240 0.0 1.7 0.00 0.07 0.00 71 1016.2
20260508105548 47 240 0.9 1.7 0.00 0.07 0.00 70 1016.3
20260508105446 47 240 0.9 3.5 0.00 0.07 0.00 71 1016.2
20260508105343 47 239 0.9 3.5 0.00 0.07 0.00 70 1016.2
20260508105240 47 239 0.9 3.5 0.00 0.07 0.00 70 1016.2
20260508105138 47 239 0.9 3.5 0.00 0.07 0.00 71 1016.2
20260508105037 47 239 0.9 3.5 0.00 0.07 0.00 71 1016.2
20260508104836 47 240 0.9 3.5 0.00 0.07 0.00 71 1016.1
20260508104734 47 269 0.9 3.5 0.00 0.07 0.00 71 1016.1
20260508104631 47 269 0.9 3.5 0.00 0.07 0.00 71 1016.2
20260508104532 47 269 0.9 3.5 0.00 0.07 0.00 71 1016.1
20260508104430 47 265 0.9 2.6 0.00 0.07 0.00 71 1016.1
20260508104324 47 265 0.9 2.6 0.00 0.07 0.00 71 1016.0
20260508104223 47 265 0.9 2.6 0.00 0.07 0.00 71 1016.0
20260508104125 47 300 0.9 2.6 0.00 0.07 0.00 71 1016.0
20260508104023 47 300 0.9 2.6 0.00 0.07 0.00 71 1016.0
20260508103924 46 300 0.9 2.6 0.00 0.07 0.00 71 1016.0
20260508103815 46 300 0.9 2.6 0.00 0.07 0.00 71 1016.0
20260508103716 46 300 0.9 2.6 0.00 0.07 0.00 71 1016.0
20260508103616 46 300 0.9 2.6 0.00 0.07 0.00 71 1016.0
20260508103516 46 300 0.9 2.6 0.00 0.07 0.00 71 1016.0
20260508103414 46 297 0.0 2.6 0.00 0.07 0.00 71 1016.0
20260508103311 46 298 0.0 1.7 0.00 0.07 0.00 71 1016.0
20260508103212 46 295 0.0 0.9 0.00 0.07 0.00 71 1015.9
20260508103111 46 295 0.0 0.9 0.00 0.07 0.00 71 1015.9
20260508103011 46 295 0.0 1.7 0.00 0.07 0.00 71 1016.0
20260508102907 46 295 0.9 1.7 0.00 0.07 0.00 71 1015.8
20260508102802 47 295 0.9 1.7 0.00 0.07 0.00 71 1015.8
20260508102701 47 295 0.9 1.7 0.00 0.07 0.00 72 1015.9
20260508102602 47 295 0.9 1.7 0.00 0.07 0.00 72 1015.9
20260508102500 47 295 0.9 1.7 0.00 0.07 0.00 72 1015.8
20260508102402 47 295 0.9 2.6 0.00 0.07 0.00 72 1015.9
20260508102251 47 295 0.9 2.6 0.00 0.07 0.00 72 1015.9
20260508102152 47 295 0.9 2.6 0.00 0.07 0.00 72 1015.9
20260508102051 47 295 0.9 2.6 0.00 0.07 0.00 72 1015.8
20260508101952 47 295 0.9 2.6 0.00 0.07 0.00 73 1015.8
20260508101851 47 297 0.9 2.6 0.00 0.07 0.00 73 1015.8
20260508101751 47 298 0.9 2.6 0.00 0.07 0.00 71 1015.8
20260508101650 47 298 0.9 2.6 0.00 0.07 0.00 70 1015.8
20260508101549 47 296 0.9 4.3 0.00 0.07 0.00 70 1015.7
20260508101448 47 296 0.9 4.3 0.00 0.07 0.00 70 1015.7
20260508101346 47 296 0.9 4.3 0.00 0.07 0.00 71 1015.7
20260508101246 47 296 1.7 4.3 0.00 0.07 0.00 70 1015.6
20260508101145 47 296 1.7 4.3 0.00 0.07 0.00 70 1015.7
20260508101042 47 296 1.7 4.3 0.00 0.07 0.00 70 1015.5
20260508100942 47 296 1.7 4.3 0.00 0.07 0.00 70 1015.6
20260508100839 47 296 1.7 4.3 0.00 0.07 0.00 70 1015.6
20260508100733 47 308 1.7 4.3 0.00 0.07 0.00 70 1015.6
20260508100633 47 311 1.7 4.3 0.00 0.07 0.00 71 1015.6
20260508100534 47 286 1.7 3.5 0.00 0.07 0.00 71 1015.5
20260508100431 47 286 1.7 3.5 0.00 0.07 0.00 70 1015.6
20260508100330 47 286 1.7 3.5 0.00 0.07 0.00 71 1015.6
20260508100226 47 284 1.7 3.5 0.00 0.07 0.00 70 1015.5
20260508100122 47 287 2.6 4.3 0.00 0.07 0.00 71 1015.6
20260508100025 48 287 2.6 4.3 0.00 0.07 0.00 70 1015.6
20260508095924 47 289 1.7 4.3 0.00 0.07 0.00 71 1015.6
20260508095824 48 281 1.7 4.3 0.00 0.07 0.00 70 1015.6
20260508095720 48 265 1.7 4.3 0.00 0.07 0.00 71 1015.6
20260508095618 48 295 1.7 4.3 0.00 0.07 0.00 71 1015.6
20260508095519 48 291 2.6 4.3 0.00 0.07 0.00 71 1015.5
20260508095420 48 288 1.7 4.3 0.00 0.07 0.00 71 1015.6
20260508095318 48 284 1.7 4.3 0.00 0.07 0.00 71 1015.6
20260508095211 48 297 1.7 4.3 0.00 0.07 0.00 71 1015.5
20260508095111 48 288 1.7 4.3 0.00 0.07 0.00 71 1015.5
20260508095011 48 290 1.7 4.3 0.00 0.07 0.00 71 1015.5
20260508094910 48 291 1.7 4.3 0.00 0.07 0.00 71 1015.5
20260508094808 48 291 1.7 4.3 0.00 0.07 0.00 71 1015.6
20260508094705 48 291 1.7 4.3 0.00 0.07 0.00 71 1015.6
20260508094605 48 272 1.7 3.5 0.00 0.07 0.00 71 1015.5
20260508094505 48 273 1.7 3.5 0.00 0.07 0.00 71 1015.5
20260508094404 48 273 1.7 3.5 0.00 0.07 0.00 71 1015.5
20260508094301 48 287 1.7 3.5 0.00 0.07 0.00 71 1015.5
20260508094158 48 287 1.7 3.5 0.00 0.07 0.00 70 1015.5
20260508094057 48 293 1.7 3.5 0.00 0.07 0.00 70 1015.5
20260508093956 48 273 1.7 3.5 0.00 0.07 0.00 70 1015.6
20260508093858 48 306 1.7 3.5 0.00 0.07 0.00 70 1015.4
20260508093755 48 306 1.7 3.5 0.00 0.07 0.00 70 1015.5
20260508093647 48 306 1.7 5.2 0.00 0.07 0.00 69 1015.5
20260508093544 48 306 1.7 5.2 0.00 0.07 0.00 69 1015.4
20260508093446 48 306 1.7 5.2 0.00 0.07 0.00 69 1015.5
20260508093346 48 307 1.7 5.2 0.00 0.07 0.00 69 1015.5
20260508093245 48 307 1.7 5.2 0.00 0.07 0.00 69 1015.5
20260508093146 48 307 2.6 5.2 0.00 0.07 0.00 69 1015.5
20260508093043 48 307 1.7 5.2 0.00 0.07 0.00 69 1015.4
20260508092944 48 309 1.7 5.2 0.00 0.07 0.00 69 1015.5
20260508092842 48 309 2.6 5.2 0.00 0.07 0.00 69 1015.4
20260508092740 48 310 2.6 5.2 0.00 0.07 0.00 69 1015.4
20260508092638 48 311 2.6 6.1 0.00 0.07 0.00 69 1015.4
20260508092537 49 311 2.6 6.1 0.00 0.07 0.00 69 1015.3
20260508092437 49 311 2.6 6.1 0.00 0.07 0.00 69 1015.4
20260508092336 49 311 2.6 6.1 0.00 0.07 0.00 69 1015.3
20260508092234 49 313 2.6 7.0 0.00 0.07 0.00 69 1015.3
20260508092127 49 297 2.6 7.0 0.00 0.07 0.00 69 1015.3
20260508092027 49 308 2.6 7.0 0.00 0.07 0.00 70 1015.3
20260508091926 49 305 2.6 7.0 0.00 0.07 0.00 70 1015.3
20260508091825 49 317 2.6 7.0 0.00 0.07 0.00 69 1015.3
20260508091724 49 299 2.6 7.0 0.00 0.07 0.00 69 1015.3
20260508091618 49 303 2.6 7.0 0.00 0.07 0.00 70 1015.4
20260508091518 49 304 3.5 7.0 0.00 0.07 0.00 69 1015.3
20260508091417 49 303 3.5 7.0 0.00 0.07 0.00 70 1015.3
20260508091316 49 279 3.5 7.0 0.00 0.07 0.00 70 1015.3
20260508091218 49 309 3.5 7.0 0.00 0.07 0.00 71 1015.1
20260508091111 49 279 2.6 7.0 0.00 0.07 0.00 72 1015.1
20260508091011 49 276 2.6 7.0 0.00 0.07 0.00 71 1015.1
20260508090912 49 268 2.6 7.0 0.00 0.07 0.00 70 1015.0
20260508090812 49 287 2.6 7.0 0.00 0.07 0.00 71 1015.0
20260508090712 49 313 2.6 7.0 0.00 0.07 0.00 70 1015.1
20260508090602 49 330 2.6 7.0 0.00 0.07 0.00 70 1015.1
20260508090500 49 306 1.7 7.0 0.00 0.07 0.00 70 1015.1
20260508090402 49 313 1.7 7.0 0.00 0.07 0.00 71 1015.3
20260508090302 49 289 1.7 4.3 0.00 0.07 0.00 72 1015.1
20260508090202 49 310 1.7 4.3 0.00 0.07 0.00 72 1015.3
20260508090058 49 311 1.7 4.3 0.00 0.07 0.00 72 1015.1
20260508085956 49 336 1.7 4.3 0.00 0.07 0.00 72 1015.3
20260508085854 49 297 1.7 4.3 0.00 0.07 0.00 71 1015.1
20260508085756 49 300 1.7 4.3 0.00 0.07 0.00 71 1015.1
20260508085656 49 304 1.7 4.3 0.00 0.07 0.00 71 1015.1
20260508085551 49 298 1.7 4.3 0.00 0.07 0.00 71 1015.3
20260508085452 49 302 1.7 4.3 0.00 0.07 0.00 71 1015.3
20260508085351 49 305 1.7 4.3 0.00 0.07 0.00 71 1015.1
20260508085250 49 306 1.7 4.3 0.00 0.07 0.00 71 1015.3
20260508085150 49 309 1.7 5.2 0.00 0.07 0.00 71 1015.3
20260508085042 49 295 1.7 5.2 0.00 0.07 0.00 70 1015.3
20260508084944 49 295 1.7 5.2 0.00 0.07 0.00 70 1015.3
20260508084840 49 296 2.6 6.1 0.00 0.07 0.00 71 1015.1
20260508084742 49 300 2.6 6.1 0.00 0.07 0.00 71 1015.1
20260508084640 49 300 2.6 6.1 0.00 0.07 0.00 71 1015.1
20260508084536 49 300 2.6 6.1 0.00 0.07 0.00 70 1015.1
20260508084438 49 300 2.6 6.1 0.00 0.07 0.00 70 1015.1
20260508084335 49 297 2.6 6.1 0.00 0.07 0.00 70 1015.1
20260508084236 49 292 2.6 6.1 0.00 0.07 0.00 70 1015.0
20260508084134 49 282 2.6 6.1 0.00 0.07 0.00 70 1015.1
20260508084028 49 311 2.6 6.1 0.00 0.07 0.00 70 1015.0
20260508083927 49 286 2.6 6.1 0.00 0.07 0.00 70 1015.0
20260508083828 49 313 2.6 5.2 0.00 0.07 0.00 71 1015.1
20260508083727 49 290 2.6 7.0 0.00 0.07 0.00 71 1015.1
20260508083627 49 294 3.5 7.0 0.00 0.07 0.00 70 1015.1
20260508083520 49 294 3.5 7.0 0.00 0.07 0.00 70 1015.1
20260508083421 49 296 3.5 7.0 0.00 0.07 0.00 70 1015.1
20260508083320 49 292 3.5 7.0 0.00 0.07 0.00 70 1015.1
20260508083220 49 290 3.5 7.0 0.00 0.07 0.00 70 1015.1
20260508083117 49 292 3.5 7.0 0.00 0.07 0.00 70 1015.0
20260508083012 49 293 3.5 7.0 0.00 0.07 0.00 69 1015.1
20260508082913 49 304 3.5 7.0 0.00 0.07 0.00 69 1015.0
20260508082812 49 318 3.5 7.0 0.00 0.07 0.00 69 1015.0
20260508082711 49 317 3.5 6.1 0.00 0.07 0.00 69 1015.0
20260508082611 49 311 3.5 7.0 0.00 0.07 0.00 70 1014.9
20260508082504 49 297 3.5 7.0 0.00 0.07 0.00 70 1015.0
20260508082406 49 296 3.5 7.0 0.00 0.07 0.00 70 1015.0
20260508082306 49 289 3.5 7.0 0.00 0.07 0.00 70 1015.0
20260508082205 50 301 3.5 7.0 0.00 0.07 0.00 70 1014.9
20260508082105 49 304 3.5 7.0 0.00 0.07 0.00 70 1014.9
20260508082000 49 313 3.5 7.0 0.00 0.07 0.00 70 1014.9
20260508081902 49 288 3.5 7.0 0.00 0.07 0.00 70 1015.0
20260508081801 49 311 3.5 7.0 0.00 0.07 0.00 70 1015.0
20260508081702 49 304 3.5 7.0 0.00 0.07 0.00 70 1015.0
20260508081602 49 309 3.5 6.1 0.00 0.07 0.00 70 1015.0
20260508081501 49 293 3.5 6.1 0.00 0.07 0.00 70 1015.0
20260508081401 49 291 3.5 6.1 0.00 0.07 0.00 70 1015.0
20260508081302 49 298 3.5 6.1 0.00 0.07 0.00 70 1015.0
20260508081158 49 288 3.5 6.1 0.00 0.07 0.00 71 1015.0
20260508081059 49 291 3.5 6.1 0.00 0.07 0.00 71 1015.0
20260508080958 49 302 3.5 6.1 0.00 0.07 0.00 71 1014.9
20260508080857 49 310 3.5 7.0 0.00 0.07 0.00 71 1014.8
20260508080757 49 304 3.5 7.0 0.00 0.07 0.00 71 1014.9
20260508080658 49 300 3.5 7.0 0.00 0.07 0.00 71 1014.8
20260508080556 49 303 3.5 7.0 0.00 0.07 0.00 71 1014.8
20260508080458 49 299 3.5 7.0 0.00 0.07 0.00 71 1014.8
20260508080357 49 307 3.5 7.0 0.00 0.07 0.00 71 1014.8
20260508080251 49 306 3.5 7.0 0.00 0.07 0.00 72 1014.8
20260508080150 49 294 3.5 7.0 0.00 0.07 0.00 71 1014.8
20260508080052 49 327 3.5 7.0 0.00 0.07 0.00 72 1014.8
20260508075952 49 297 3.5 7.0 0.00 0.07 0.00 72 1014.8
20260508075851 49 306 3.5 6.1 0.00 0.07 0.00 72 1014.8
20260508075745 49 302 3.5 6.1 0.00 0.07 0.00 73 1014.9
20260508075645 49 301 3.5 6.1 0.00 0.07 0.00 73 1014.7
20260508075545 49 300 3.5 6.1 0.00 0.07 0.00 73 1014.7
20260508075444 49 306 3.5 6.1 0.00 0.07 0.00 73 1014.7
20260508075346 49 279 3.5 6.1 0.00 0.07 0.00 73 1014.7
20260508075242 49 298 3.5 6.1 0.00 0.07 0.00 73 1014.6
20260508075144 49 305 3.5 6.1 0.00 0.07 0.00 73 1014.6
20260508075041 49 308 3.5 6.1 0.00 0.07 0.00 73 1014.6
20260508074941 49 310 3.5 6.1 0.00 0.07 0.00 73 1014.6
20260508074842 49 292 3.5 6.1 0.00 0.07 0.00 74 1014.6
20260508074742 49 313 3.5 6.1 0.00 0.07 0.00 74 1014.6
20260508074641 49 312 3.5 6.1 0.00 0.07 0.00 74 1014.6
20260508074540 49 302 3.5 6.1 0.00 0.07 0.00 73 1014.6
20260508074438 49 304 3.5 6.1 0.00 0.07 0.00 74 1014.7
20260508074339 49 302 3.5 6.1 0.00 0.07 0.00 74 1014.7
20260508074238 49 301 3.5 6.1 0.00 0.07 0.00 74 1014.8
20260508074139 49 302 3.5 6.1 0.00 0.07 0.00 74 1014.7
20260508074039 49 306 3.5 6.1 0.00 0.07 0.00 74 1014.7
20260508073938 49 303 3.5 6.1 0.00 0.07 0.00 74 1014.8
20260508073836 49 301 3.5 6.1 0.00 0.07 0.00 74 1014.6
20260508073736 49 304 3.5 6.1 0.00 0.07 0.00 74 1014.6
20260508073633 49 290 3.5 6.1 0.00 0.07 0.00 74 1014.7
20260508073533 49 292 3.5 6.1 0.00 0.07 0.00 75 1014.7
20260508073433 49 298 3.5 6.1 0.00 0.07 0.00 75 1014.7
20260508073333 49 304 3.5 6.1 0.00 0.07 0.00 75 1014.7
20260508073233 49 300 3.5 7.0 0.00 0.07 0.00 75 1014.7
20260508073132 49 295 3.5 7.0 0.00 0.07 0.00 75 1014.6
20260508073034 49 291 3.5 7.0 0.00 0.07 0.00 76 1014.6
20260508072932 49 288 3.5 7.0 0.00 0.07 0.00 75 1014.6
20260508072829 49 301 3.5 7.0 0.00 0.07 0.00 76 1014.6
20260508072729 49 308 3.5 7.0 0.00 0.07 0.00 76 1014.6
20260508072630 49 293 3.5 7.0 0.00 0.07 0.00 76 1014.7
20260508072530 49 301 3.5 7.0 0.00 0.07 0.00 76 1014.6
20260508072428 49 306 3.5 7.0 0.00 0.07 0.00 76 1014.6
20260508072330 49 322 3.5 7.0 0.00 0.07 0.00 76 1014.6
20260508072228 49 304 3.5 6.1 0.00 0.07 0.00 76 1014.6
20260508072128 49 295 3.5 6.1 0.00 0.07 0.00 76 1014.6
20260508072030 49 295 3.5 6.1 0.00 0.07 0.00 76 1014.5
20260508071930 49 303 3.5 6.1 0.00 0.07 0.00 76 1014.6
20260508071825 49 295 3.5 6.1 0.00 0.07 0.00 76 1014.6
20260508071725 49 302 3.5 6.1 0.00 0.07 0.00 76 1014.6
20260508071624 49 312 3.5 6.1 0.00 0.07 0.00 76 1014.6
20260508071525 50 316 3.5 6.1 0.00 0.07 0.00 76 1014.6
20260508071425 50 324 3.5 6.1 0.00 0.07 0.00 77 1014.5
20260508071325 50 300 3.5 6.1 0.00 0.07 0.00 77 1014.6
20260508071225 50 331 3.5 6.1 0.00 0.07 0.00 77 1014.6
20260508071125 50 304 3.5 6.1 0.00 0.07 0.00 77 1014.6
20260508071025 50 321 3.5 6.1 0.00 0.07 0.00 77 1014.6
20260508070924 50 313 3.5 6.1 0.00 0.07 0.00 77 1014.6
20260508070825 50 304 3.5 6.1 0.00 0.07 0.00 77 1014.6
20260508070726 50 298 3.5 6.1 0.00 0.07 0.00 77 1014.6
20260508070626 50 314 3.5 6.1 0.00 0.07 0.00 77 1014.6
20260508070525 50 293 3.5 6.1 0.00 0.07 0.00 77 1014.6
20260508070425 50 312 3.5 6.1 0.00 0.07 0.00 78 1014.6
20260508070325 50 289 3.5 6.1 0.00 0.07 0.00 78 1014.5
20260508070226 50 312 3.5 5.2 0.00 0.07 0.00 78 1014.5
20260508070124 50 286 3.5 6.1 0.00 0.07 0.00 78 1014.5
20260508070022 50 306 3.5 6.1 0.00 0.07 0.00 78 1014.5
20260508065923 50 315 3.5 6.1 0.00 0.07 0.00 78 1014.5
20260508065820 50 307 3.5 6.1 0.00 0.07 0.00 78 1014.5
20260508065720 50 313 3.5 6.1 0.00 0.07 0.00 78 1014.5
20260508065621 50 307 3.5 6.1 0.00 0.07 0.00 78 1014.5
20260508065522 50 304 3.5 6.1 0.00 0.07 0.00 78 1014.5
20260508065422 50 333 3.5 6.1 0.00 0.07 0.00 78 1014.5
20260508065321 50 306 3.5 7.0 0.00 0.07 0.00 78 1014.5
20260508065221 50 298 3.5 7.0 0.00 0.07 0.00 78 1014.4
20260508065121 50 304 4.3 7.0 0.00 0.07 0.00 78 1014.5
20260508065021 50 302 4.3 7.0 0.00 0.07 0.00 78 1014.6
20260508064921 50 317 4.3 7.0 0.00 0.07 0.00 78 1014.5
20260508064821 50 328 4.3 7.0 0.00 0.07 0.00 78 1014.4
20260508064722 50 325 4.3 7.0 0.00 0.07 0.00 78 1014.5
20260508064622 50 315 4.3 7.0 0.00 0.07 0.00 78 1014.5
20260508064521 50 332 4.3 7.0 0.00 0.07 0.00 78 1014.5
20260508064420 50 336 4.3 7.0 0.00 0.07 0.00 78 1014.4
20260508064319 50 312 4.3 7.0 0.00 0.07 0.00 78 1014.5
20260508064220 50 302 4.3 7.0 0.00 0.07 0.00 78 1014.4
20260508064119 50 327 4.3 7.0 0.00 0.07 0.00 78 1014.4
20260508064020 50 312 4.3 7.0 0.00 0.07 0.00 78 1014.4
20260508063919 50 310 4.3 7.0 0.00 0.07 0.00 78 1014.3
20260508063818 50 325 4.3 7.0 0.00 0.07 0.00 78 1014.3
20260508063719 50 307 4.3 7.0 0.00 0.07 0.00 78 1014.3
20260508063620 50 325 4.3 7.0 0.00 0.07 0.00 78 1014.3
20260508063519 50 299 4.3 7.0 0.00 0.07 0.00 78 1014.4
20260508063418 50 311 4.3 7.0 0.00 0.07 0.00 78 1014.3
20260508063320 50 323 4.3 7.0 0.00 0.07 0.00 78 1014.4
20260508063214 50 313 4.3 7.0 0.00 0.07 0.00 77 1014.4
20260508063114 51 314 3.5 7.0 0.00 0.07 0.00 77 1014.4
20260508063013 51 317 3.5 7.0 0.00 0.07 0.00 78 1014.4
20260508062912 51 309 3.5 7.0 0.00 0.07 0.00 77 1014.4
20260508062815 51 300 3.5 7.0 0.00 0.07 0.00 77 1014.3
20260508062708 51 298 3.5 7.0 0.00 0.07 0.00 77 1014.4
20260508062606 51 304 4.3 7.0 0.00 0.07 0.00 77 1014.3
20260508062508 51 313 4.3 7.8 0.00 0.07 0.00 77 1014.4
20260508062407 51 339 4.3 7.8 0.00 0.07 0.00 77 1014.4
20260508062307 51 305 4.3 7.8 0.00 0.07 0.00 77 1014.5
20260508062201 51 320 4.3 7.8 0.00 0.07 0.00 77 1014.4
20260508062100 51 302 4.3 7.8 0.00 0.07 0.00 76 1014.3
20260508062001 51 313 4.3 7.8 0.00 0.07 0.00 76 1014.3
20260508061901 51 316 4.3 7.8 0.00 0.07 0.00 76 1014.4
20260508061800 51 313 4.3 7.8 0.00 0.07 0.00 76 1014.4
20260508061700 51 313 4.3 7.8 0.00 0.07 0.00 76 1014.4
20260508061600 51 310 5.2 7.8 0.00 0.07 0.00 76 1014.3
20260508061501 51 319 5.2 9.6 0.00 0.07 0.00 76 1014.3
20260508061400 51 297 5.2 9.6 0.00 0.07 0.00 75 1014.4
20260508061301 51 325 5.2 9.6 0.00 0.07 0.00 75 1014.2
20260508061200 51 323 5.2 9.6 0.00 0.07 0.00 75 1014.4
20260508061100 51 322 6.1 9.6 0.00 0.07 0.00 75 1014.4
20260508061001 51 335 6.1 9.6 0.00 0.07 0.00 75 1014.5
20260508060900 51 328 6.1 9.6 0.00 0.07 0.00 75 1014.4
20260508060801 51 317 6.1 9.6 0.00 0.07 0.00 75 1014.5
20260508060702 51 293 6.1 9.6 0.00 0.07 0.00 75 1014.5
20260508060602 51 311 6.1 9.6 0.00 0.07 0.00 75 1014.4
20260508060454 51 289 7.0 9.6 0.00 0.07 0.00 75 1014.4
20260508060356 51 298 7.0 10.4 0.00 0.07 0.00 75 1014.3
20260508060255 51 311 7.0 10.4 0.00 0.07 0.00 75 1014.4
20260508060156 51 313 7.0 10.4 0.00 0.07 0.00 75 1014.4
20260508060053 51 302 7.0 10.4 0.00 0.07 0.00 75 1014.4
20260508055953 51 300 7.0 10.4 0.00 0.07 0.00 75 1014.4
20260508055852 51 301 7.0 10.4 0.00 0.07 0.00 75 1014.3
20260508055753 51 303 7.0 10.4 0.00 0.07 0.00 75 1014.3
20260508055652 51 299 6.1 10.4 0.00 0.07 0.00 75 1014.3
20260508055553 51 309 6.1 10.4 0.00 0.07 0.00 75 1014.2
20260508055453 51 316 6.1 10.4 0.00 0.07 0.00 75 1014.3
20260508055352 51 303 6.1 9.6 0.00 0.07 0.00 75 1014.3
20260508055253 51 302 5.2 9.6 0.00 0.07 0.00 75 1014.3
20260508055152 51 310 5.2 9.6 0.00 0.07 0.00 75 1014.4
20260508055053 51 293 5.2 9.6 0.00 0.07 0.00 75 1014.3
20260508054954 51 315 5.2 9.6 0.00 0.07 0.00 75 1014.3
20260508054854 51 306 5.2 8.7 0.00 0.07 0.00 75 1014.4
20260508054744 51 313 5.2 8.7 0.00 0.07 0.00 75 1014.5
20260508054645 51 302 5.2 8.7 0.00 0.07 0.00 75 1014.5
20260508054544 51 313 5.2 8.7 0.00 0.07 0.00 75 1014.5
20260508054445 51 309 5.2 7.8 0.00 0.07 0.00 75 1014.4
20260508054245 52 315 6.1 8.7 0.00 0.07 0.00 75 1014.4
20260508054145 52 285 6.1 10.4 0.00 0.07 0.00 75 1014.5
20260508054045 52 292 6.1 10.4 0.00 0.07 0.00 75 1014.3
20260508053951 52 306 6.1 10.4 0.00 0.07 0.00 75 1014.3
20260508053844 52 307 7.0 10.4 0.00 0.07 0.00 75 1014.2
20260508053746 52 306 7.0 11.3 0.00 0.07 0.00 75 1014.2
20260508053642 52 309 7.0 11.3 0.00 0.07 0.00 75 1014.3
20260508053543 52 325 7.0 11.3 0.00 0.07 0.00 75 1014.2
20260508053444 52 307 7.0 11.3 0.00 0.07 0.00 75 1014.2
20260508053343 52 279 7.0 11.3 0.00 0.07 0.00 75 1014.2
20260508053243 52 303 7.8 11.3 0.00 0.07 0.00 75 1014.2
20260508053143 52 305 7.8 11.3 0.00 0.07 0.00 75 1014.2
20260508053038 52 290 7.8 11.3 0.00 0.07 0.00 75 1014.2
20260508052938 52 324 7.8 11.3 0.00 0.07 0.00 74 1014.2
20260508052838 52 304 7.8 13.9 0.00 0.07 0.00 75 1014.2
20260508052736 52 314 7.8 13.9 0.00 0.07 0.00 75 1014.2
20260508052638 52 305 7.8 13.9 0.00 0.07 0.00 75 1014.2
20260508052532 52 292 7.8 13.9 0.00 0.07 0.00 75 1014.2
20260508052432 52 302 8.7 13.9 0.00 0.07 0.00 75 1014.2
20260508052331 52 295 8.7 13.9 0.00 0.07 0.00 75 1014.3
20260508052232 52 294 8.7 13.9 0.00 0.07 0.00 75 1014.2
20260508052131 52 292 8.7 13.9 0.00 0.07 0.00 75 1014.1
20260508052027 52 310 8.7 13.9 0.00 0.08 0.00 75 1014.2
20260508051927 52 300 8.7 13.9 0.00 0.08 0.00 76 1014.1
20260508051826 52 312 7.8 11.3 0.00 0.08 0.00 76 1014.1
20260508051726 52 304 7.8 11.3 0.00 0.08 0.00 76 1014.1
20260508051627 52 328 7.8 11.3 0.00 0.08 0.00 76 1014.1
20260508051526 52 281 7.8 11.3 0.00 0.08 0.00 76 1014.0
20260508051427 52 306 7.8 11.3 0.00 0.08 0.00 76 1014.0
20260508051326 52 312 7.8 11.3 0.00 0.08 0.00 76 1014.0
20260508051225 52 342 7.8 11.3 0.00 0.08 0.00 76 1014.1
20260508051124 51 286 7.8 11.3 0.00 0.08 0.00 76 1014.0
20260508051026 51 297 7.0 11.3 0.00 0.08 0.00 76 1014.0
20260508050925 52 306 7.0 11.3 0.00 0.08 0.00 76 1014.0
20260508050824 52 319 7.8 11.3 0.00 0.08 0.00 76 1014.0
20260508050724 52 319 7.8 11.3 0.00 0.08 0.00 76 1014.0
20260508050624 52 288 7.8 11.3 0.00 0.08 0.00 76 1014.0
20260508050526 52 324 7.8 12.2 0.00 0.08 0.00 76 1014.0
20260508050426 52 296 7.8 12.2 0.00 0.08 0.00 76 1014.0
20260508050325 52 318 7.8 12.2 0.00 0.08 0.00 76 1013.9
20260508050225 52 337 7.0 12.2 0.00 0.08 0.00 76 1014.1
20260508050120 52 325 7.0 12.2 0.00 0.08 0.00 76 1014.0
20260508050021 52 327 7.0 12.2 0.00 0.08 0.00 76 1014.1
20260508045922 52 300 7.0 12.2 0.00 0.08 0.00 76 1014.1
20260508045819 52 325 7.0 12.2 0.00 0.08 0.00 76 1014.1
20260508045718 52 350 7.0 12.2 0.00 0.08 0.00 76 1014.1
20260508045620 52 318 7.0 12.2 0.00 0.08 0.00 76 1014.1
20260508045518 52 292 6.1 9.6 0.00 0.08 0.00 76 1014.1
20260508045418 52 317 6.1 9.6 0.00 0.08 0.00 76 1014.1
20260508045319 52 316 6.1 9.6 0.00 0.08 0.00 76 1014.1
20260508045218 52 306 5.2 9.6 0.00 0.08 0.00 76 1014.1
20260508045120 52 332 5.2 9.6 0.00 0.08 0.00 76 1014.0
20260508045019 52 325 5.2 9.6 0.00 0.08 0.00 76 1014.1
20260508044918 52 332 5.2 9.6 0.00 0.08 0.00 76 1014.0
20260508044818 52 350 5.2 9.6 0.00 0.08 0.00 75 1014.0
20260508044719 52 324 4.3 9.6 0.00 0.08 0.00 75 1014.1
20260508044618 52 313 4.3 9.6 0.00 0.08 0.00 75 1014.1
20260508044519 52 316 4.3 9.6 0.00 0.08 0.00 75 1014.0
20260508044418 52 321 4.3 9.6 0.00 0.08 0.00 75 1014.1
20260508044319 52 355 4.3 9.6 0.00 0.08 0.00 75 1014.0
20260508044215 52 348 5.2 9.6 0.00 0.08 0.00 75 1014.0
20260508044116 52 312 4.3 9.6 0.00 0.08 0.00 75 1014.0
20260508044015 52 315 4.3 9.6 0.00 0.08 0.00 75 1014.1
20260508043915 52 313 4.3 9.6 0.00 0.08 0.00 75 1014.0
20260508043816 52 325 4.3 9.6 0.00 0.08 0.00 75 1014.0
20260508043714 52 315 4.3 9.6 0.00 0.08 0.00 75 1014.0
20260508043616 52 311 4.3 7.8 0.00 0.08 0.00 75 1014.0
20260508043515 52 340 3.5 7.8 0.00 0.08 0.00 75 1014.1
20260508043414 52 313 3.5 7.0 0.00 0.08 0.00 75 1014.1
20260508043315 52 312 3.5 7.0 0.00 0.08 0.00 75 1014.1
20260508043215 52 324 2.6 7.0 0.00 0.08 0.00 75 1014.2
20260508043114 52 318 2.6 5.2 0.00 0.08 0.00 75 1014.2
20260508043015 52 330 2.6 5.2 0.00 0.08 0.00 75 1014.1
20260508042914 52 323 2.6 5.2 0.00 0.08 0.00 74 1014.2
20260508042814 52 331 2.6 5.2 0.00 0.08 0.00 74 1014.1
20260508042716 52 320 2.6 5.2 0.00 0.09 0.00 74 1014.2
20260508042615 52 319 3.5 6.1 0.00 0.09 0.00 74 1014.2
20260508042515 52 314 3.5 6.1 0.00 0.09 0.00 74 1014.2
20260508042414 52 312 3.5 6.1 0.00 0.09 0.00 74 1014.3
20260508042316 52 310 3.5 6.1 0.00 0.09 0.00 74 1014.1
20260508042215 52 323 3.5 6.1 0.00 0.09 0.00 74 1014.1
20260508042114 52 280 3.5 6.1 0.00 0.09 0.00 74 1014.2
20260508042015 52 290 3.5 6.1 0.00 0.09 0.00 75 1014.1
20260508041914 52 288 3.5 6.1 0.00 0.09 0.00 74 1014.1
20260508041816 52 298 3.5 6.1 0.00 0.09 0.00 74 1014.1
20260508041716 52 303 3.5 6.1 0.00 0.09 0.00 75 1014.1
20260508041616 52 309 3.5 6.1 0.00 0.09 0.00 75 1014.1
20260508041514 52 302 3.5 6.1 0.00 0.09 0.00 75 1014.1
20260508041415 52 298 3.5 6.1 0.00 0.09 0.00 75 1014.0
20260508041314 52 292 3.5 6.1 0.00 0.09 0.00 75 1014.1
20260508041215 52 301 3.5 6.1 0.00 0.09 0.00 75 1014.1
20260508041114 52 326 3.5 6.1 0.00 0.09 0.00 75 1014.1
20260508041015 52 318 2.6 6.1 0.00 0.09 0.00 74 1014.2
20260508040912 52 312 2.6 6.1 0.00 0.09 0.00 74 1014.1
20260508040810 52 309 2.6 6.1 0.00 0.09 0.00 74 1014.0
20260508040712 52 281 3.5 7.0 0.00 0.09 0.00 74 1014.0
20260508040610 52 296 3.5 7.0 0.00 0.09 0.00 74 1014.0
20260508040510 52 295 3.5 7.0 0.00 0.09 0.00 74 1014.0
20260508040411 52 315 3.5 7.0 0.00 0.09 0.00 75 1013.9
20260508040310 52 298 3.5 7.8 0.00 0.09 0.00 75 1014.1
20260508040211 52 299 3.5 7.8 0.00 0.09 0.00 75 1013.9
20260508040110 52 300 4.3 7.8 0.00 0.09 0.00 74 1014.0
20260508040010 52 301 4.3 7.8 0.00 0.09 0.00 74 1014.0
20260508035910 52 304 4.3 7.8 0.00 0.09 0.09 74 1014.0
20260508035808 52 302 4.3 7.8 0.00 0.09 0.09 74 1013.9
20260508035710 52 327 4.3 7.8 0.00 0.09 0.09 74 1013.9
20260508035608 52 306 4.3 7.8 0.00 0.09 0.09 74 1013.9
20260508035510 52 298 4.3 7.8 0.00 0.09 0.09 74 1013.9
20260508035409 52 293 4.3 7.8 0.00 0.09 0.09 74 1013.9
20260508035308 52 321 4.3 7.0 0.00 0.09 0.09 74 1013.9
20260508035209 52 318 4.3 7.0 0.00 0.09 0.09 74 1013.9
20260508035108 52 288 3.5 7.0 0.00 0.09 0.09 74 1014.0
20260508035010 52 311 3.5 7.0 0.00 0.09 0.09 74 1013.8
20260508034910 52 304 3.5 7.0 0.00 0.09 0.09 74 1013.9
20260508034808 52 277 3.5 6.1 0.00 0.09 0.09 74 1013.8
20260508034710 52 295 2.6 6.1 0.00 0.09 0.09 74 1013.9
20260508034609 52 311 2.6 6.1 0.00 0.09 0.09 74 1013.8
20260508034502 52 302 2.6 5.2 0.00 0.09 0.09 74 1013.9
20260508034403 52 301 2.6 4.3 0.00 0.09 0.09 74 1013.9
20260508034302 52 294 2.6 4.3 0.00 0.09 0.09 74 1013.8
20260508034203 52 318 2.6 4.3 0.00 0.09 0.09 75 1013.9
20260508034104 52 292 2.6 7.0 0.00 0.09 0.09 76 1013.9
20260508033957 52 291 2.6 7.0 0.00 0.09 0.09 76 1013.8
20260508033856 52 291 2.6 7.0 0.00 0.09 0.09 74 1013.9
20260508033757 52 291 2.6 7.0 0.00 0.09 0.09 74 1013.8
20260508033657 52 290 2.6 7.0 0.00 0.09 0.09 74 1013.8
20260508033558 52 296 2.6 8.7 0.00 0.09 0.09 74 1013.9
20260508033453 52 296 3.5 8.7 0.00 0.09 0.09 74 1013.9
20260508033352 52 297 3.5 8.7 0.00 0.09 0.09 74 1013.9
20260508033252 52 311 3.5 8.7 0.00 0.09 0.09 74 1013.8
20260508033149 52 313 3.5 8.7 0.00 0.09 0.09 74 1013.8
20260508033048 52 317 2.6 8.7 0.00 0.09 0.09 74 1013.8
20260508032948 52 300 2.6 8.7 0.00 0.09 0.09 74 1013.8
20260508032850 52 311 2.6 8.7 0.00 0.09 0.09 74 1013.7
20260508032746 52 311 2.6 8.7 0.00 0.09 0.09 74 1013.8
20260508032647 52 309 2.6 8.7 0.00 0.09 0.09 74 1013.9
20260508032547 52 292 2.6 5.2 0.00 0.09 0.09 74 1013.9
20260508032445 52 292 2.6 5.2 0.00 0.09 0.09 74 1013.8
20260508032343 52 267 2.6 6.1 0.00 0.09 0.09 74 1013.8
20260508032244 52 292 2.6 6.1 0.00 0.09 0.09 74 1013.8
20260508032142 52 291 2.6 6.1 0.00 0.09 0.09 74 1013.8
20260508032043 52 301 2.6 7.0 0.00 0.09 0.09 74 1013.8
20260508031944 52 292 3.5 7.0 0.00 0.09 0.09 74 1013.8
20260508031841 52 292 3.5 7.0 0.00 0.09 0.09 75 1013.8
20260508031741 52 292 3.5 7.0 0.00 0.09 0.09 74 1013.8
20260508031641 52 292 3.5 7.0 0.00 0.09 0.09 73 1013.8
20260508031541 52 292 4.3 7.0 0.00 0.09 0.09 73 1013.8
20260508031442 52 282 4.3 7.0 0.00 0.09 0.09 73 1013.9
20260508031341 52 289 4.3 7.0 0.00 0.09 0.09 73 1013.9
20260508031234 52 289 4.3 7.0 0.00 0.09 0.09 73 1013.9
20260508031135 52 308 4.3 7.0 0.00 0.09 0.09 73 1013.9
20260508031035 52 313 3.5 6.1 0.00 0.09 0.09 73 1013.8
20260508030935 52 294 4.3 6.1 0.00 0.09 0.09 73 1013.8
20260508030835 52 307 4.3 6.1 0.00 0.09 0.09 73 1013.8
20260508030729 52 306 4.3 7.0 0.00 0.09 0.09 73 1013.9
20260508030629 52 299 4.3 8.7 0.00 0.09 0.09 73 1013.8
20260508030529 52 298 4.3 8.7 0.00 0.09 0.09 73 1013.8
20260508030429 52 297 4.3 8.7 0.00 0.09 0.09 73 1013.8
20260508030330 52 296 4.3 8.7 0.00 0.09 0.09 73 1013.8
20260508030226 53 298 4.3 8.7 0.00 0.09 0.09 73 1013.7
20260508030124 52 329 5.2 8.7 0.00 0.09 0.09 73 1013.8
20260508030024 52 298 5.2 8.7 0.00 0.09 0.09 73 1013.7
20260508025924 53 286 5.2 8.7 0.00 0.09 0.09 73 1013.8
20260508025825 53 311 6.1 8.7 0.00 0.09 0.09 72 1013.7
20260508025724 53 311 6.1 8.7 0.00 0.09 0.09 73 1013.5
20260508025624 53 299 6.1 8.7 0.00 0.09 0.09 73 1013.5
20260508025525 53 313 6.1 8.7 0.00 0.09 0.09 73 1013.5
20260508025426 53 292 6.1 9.6 0.00 0.09 0.09 72 1013.5
20260508025323 53 320 6.1 9.6 0.00 0.09 0.09 72 1013.4
20260508025224 53 296 7.0 9.6 0.00 0.09 0.09 72 1013.5
20260508025121 53 315 7.0 9.6 0.00 0.09 0.09 72 1013.5
20260508025020 53 300 7.0 9.6 0.00 0.09 0.09 72 1013.4
20260508024920 53 304 7.0 10.4 0.00 0.09 0.09 73 1013.4
20260508024821 53 308 7.0 10.4 0.00 0.09 0.09 73 1013.4
20260508024721 53 303 7.0 10.4 0.00 0.09 0.09 72 1013.4
20260508024621 53 283 6.1 10.4 0.00 0.09 0.09 72 1013.4
20260508024514 53 319 6.1 10.4 0.00 0.09 0.09 72 1013.3
20260508024414 53 315 7.0 10.4 0.00 0.09 0.09 72 1013.3
20260508024315 53 269 7.0 10.4 0.00 0.09 0.09 72 1013.3
20260508024215 53 317 7.0 10.4 0.00 0.09 0.09 73 1013.3
20260508024114 53 284 7.0 11.3 0.00 0.09 0.09 72 1013.3
20260508024014 53 315 7.0 11.3 0.00 0.09 0.09 73 1013.3
20260508023915 53 293 7.0 11.3 0.00 0.10 0.09 72 1013.3
20260508023814 53 305 7.0 11.3 0.00 0.10 0.09 72 1013.3
20260508023716 53 321 7.0 11.3 0.00 0.10 0.09 73 1013.3
20260508023616 53 321 7.0 11.3 0.00 0.10 0.09 73 1013.2
20260508023515 53 302 7.0 11.3 0.00 0.10 0.09 72 1013.3
20260508023412 53 309 7.0 11.3 0.00 0.10 0.09 73 1013.3
20260508023312 52 298 7.0 11.3 0.00 0.10 0.09 73 1013.2
20260508023212 52 317 6.1 11.3 0.00 0.11 0.09 73 1013.2
20260508023112 52 287 6.1 9.6 0.00 0.11 0.09 73 1013.3
20260508023014 52 290 6.1 9.6 0.00 0.11 0.09 73 1013.2
20260508022912 52 304 6.1 9.6 0.00 0.11 0.09 73 1013.2
20260508022810 52 289 6.1 9.6 0.00 0.11 0.09 73 1013.2
20260508022708 52 290 6.1 9.6 0.00 0.11 0.09 73 1013.2
20260508022609 52 297 6.1 9.6 0.00 0.11 0.09 73 1013.2
20260508022508 52 294 6.1 9.6 0.00 0.11 0.09 73 1013.3
20260508022408 52 299 6.1 9.6 0.00 0.11 0.09 73 1013.2
20260508022308 52 298 6.1 9.6 0.00 0.11 0.09 73 1013.2
20260508022208 52 306 6.1 9.6 0.00 0.11 0.09 73 1013.3
20260508022109 52 318 6.1 9.6 0.00 0.11 0.09 73 1013.3
20260508022010 52 325 6.1 9.6 0.00 0.11 0.09 73 1013.2
20260508021909 52 290 6.1 9.6 0.00 0.11 0.09 73 1013.2
20260508021808 52 307 6.1 9.6 0.00 0.11 0.09 73 1013.2
20260508021708 52 297 6.1 12.2 0.00 0.12 0.09 73 1013.2
20260508021609 52 304 6.1 12.2 0.00 0.12 0.09 73 1013.1
20260508021509 52 290 6.1 12.2 0.00 0.12 0.09 73 1013.1
20260508021409 52 319 7.0 12.2 0.00 0.12 0.09 73 1013.1
20260508021310 52 279 7.0 12.2 0.00 0.12 0.09 73 1013.0
20260508021208 52 297 7.0 12.2 0.00 0.12 0.09 73 1013.0
20260508021108 52 304 7.0 12.2 0.00 0.12 0.09 73 1013.0
20260508021009 52 288 7.0 12.2 0.00 0.12 0.09 73 1013.0
20260508020910 52 305 6.1 12.2 0.00 0.12 0.09 73 1012.9
20260508020808 52 293 6.1 12.2 0.00 0.12 0.09 73 1013.0
20260508020709 52 322 6.1 10.4 0.00 0.12 0.09 73 1012.9
20260508020608 53 334 6.1 10.4 0.00 0.13 0.09 73 1012.8
20260508020508 53 286 6.1 11.3 0.00 0.13 0.09 73 1012.8
20260508020409 53 327 7.0 11.3 0.00 0.13 0.09 73 1012.8
20260508020312 53 306 7.0 11.3 0.00 0.13 0.09 73 1012.8
20260508020208 53 294 7.0 11.3 0.00 0.13 0.09 73 1012.8
20260508020109 53 308 7.0 11.3 0.00 0.13 0.09 73 1012.8
20260508020009 53 298 7.0 11.3 0.00 0.13 0.09 73 1012.8
20260508015908 53 311 7.0 11.3 0.00 0.13 0.09 73 1012.8
20260508015809 53 317 6.1 11.3 0.00 0.13 0.09 73 1012.8
20260508015709 53 298 6.1 11.3 0.00 0.13 0.09 73 1012.8
20260508015610 53 329 5.2 11.3 0.00 0.13 0.09 73 1012.9
20260508015505 53 291 5.2 9.6 0.00 0.13 0.09 73 1012.8
20260508015406 53 292 5.2 9.6 0.00 0.13 0.09 72 1012.9
20260508015307 53 288 5.2 9.6 0.00 0.13 0.09 73 1012.8
20260508015205 53 309 5.2 9.6 0.00 0.13 0.09 73 1012.9
20260508015104 53 298 5.2 10.4 0.00 0.13 0.09 73 1012.8
20260508015004 53 329 5.2 11.3 0.00 0.13 0.09 73 1012.9
20260508014904 53 307 5.2 11.3 0.00 0.13 0.09 72 1012.7
20260508014806 53 331 6.1 11.3 0.00 0.13 0.09 73 1012.8
20260508014705 53 306 6.1 11.3 0.00 0.13 0.09 72 1012.7
20260508014604 53 300 6.1 11.3 0.00 0.14 0.09 72 1012.7
20260508014505 53 319 6.1 11.3 0.00 0.14 0.09 72 1012.5
20260508014405 53 284 6.1 11.3 0.00 0.14 0.09 72 1012.6
20260508014304 53 313 6.1 11.3 0.00 0.14 0.09 72 1012.5
20260508014206 53 276 6.1 11.3 0.00 0.14 0.09 72 1012.5
20260508014105 53 313 6.1 11.3 0.00 0.14 0.09 72 1012.5
20260508014005 53 350 6.1 11.3 0.00 0.14 0.09 72 1012.5
20260508013905 53 332 6.1 11.3 0.00 0.14 0.09 72 1012.5
20260508013805 53 311 5.2 10.4 0.00 0.14 0.09 72 1012.4
20260508013704 53 304 5.2 9.6 0.00 0.14 0.09 72 1012.4
20260508013604 53 322 5.2 9.6 0.00 0.14 0.09 72 1012.5
20260508013505 53 300 5.2 8.7 0.00 0.14 0.09 72 1012.4
20260508013406 53 325 5.2 8.7 0.00 0.14 0.09 72 1012.4
20260508013304 53 312 5.2 8.7 0.00 0.14 0.09 72 1012.3
20260508013205 53 311 6.1 9.6 0.00 0.14 0.09 72 1012.3
20260508013105 53 301 6.1 9.6 0.00 0.14 0.09 72 1012.3
20260508013005 53 298 6.1 9.6 0.00 0.14 0.09 72 1012.3
20260508012858 53 304 6.1 9.6 0.00 0.14 0.09 72 1012.2
20260508012758 53 324 6.1 9.6 0.00 0.14 0.09 72 1012.3
20260508012657 53 334 6.1 9.6 0.00 0.14 0.09 72 1012.2
20260508012556 53 308 6.1 9.6 0.00 0.14 0.09 72 1012.3
20260508012456 53 281 6.1 9.6 0.00 0.14 0.09 72 1012.2
20260508012356 53 305 7.0 9.6 0.00 0.14 0.09 72 1012.2
20260508012256 53 311 7.0 11.3 0.00 0.14 0.09 72 1012.1
20260508012157 53 313 6.1 11.3 0.00 0.14 0.09 72 1012.1
20260508012057 53 321 6.1 11.3 0.00 0.14 0.09 72 1012.1
20260508011957 53 309 6.1 11.3 0.00 0.14 0.09 72 1012.2
20260508011857 53 313 6.1 11.3 0.00 0.14 0.09 72 1012.2
20260508011756 53 346 6.1 11.3 0.00 0.14 0.09 72 1012.1
20260508011658 53 319 6.1 11.3 0.00 0.14 0.09 72 1012.1
20260508011557 53 315 6.1 11.3 0.00 0.14 0.09 73 1012.2
20260508011456 53 313 6.1 11.3 0.00 0.14 0.09 72 1012.2
20260508011356 53 331 5.2 11.3 0.00 0.14 0.09 72 1012.1
20260508011256 53 283 5.2 9.6 0.00 0.14 0.09 72 1012.1
20260508011156 53 314 5.2 8.7 0.00 0.14 0.09 72 1012.0
20260508011056 53 314 5.2 8.7 0.00 0.14 0.09 72 1012.1
20260508010956 53 296 5.2 8.7 0.00 0.14 0.09 72 1012.1
20260508010856 53 291 5.2 8.7 0.00 0.14 0.09 73 1012.0
20260508010756 53 305 5.2 8.7 0.00 0.14 0.09 72 1012.1
20260508010656 53 289 4.3 8.7 0.00 0.14 0.09 73 1012.1
20260508010557 53 292 4.3 8.7 0.00 0.14 0.09 72 1012.0
20260508010457 53 298 4.3 8.7 0.00 0.14 0.09 72 1012.0
20260508010357 53 298 5.2 8.7 0.00 0.14 0.09 72 1012.0
20260508010257 53 308 5.2 8.7 0.00 0.14 0.09 72 1011.8
20260508010156 53 286 5.2 8.7 0.00 0.14 0.09 72 1011.8
20260508010056 53 299 5.2 8.7 0.00 0.15 0.09 73 1012.0
20260508005958 53 314 5.2 8.7 0.00 0.15 0.09 73 1011.8
20260508005857 53 288 5.2 8.7 0.00 0.15 0.09 72 1012.0
20260508005758 53 318 5.2 8.7 0.00 0.15 0.09 72 1011.8
20260508005657 53 322 6.1 8.7 0.00 0.15 0.09 72 1011.8
20260508005552 53 314 6.1 9.6 0.00 0.15 0.09 72 1012.0
20260508005453 53 302 7.0 9.6 0.00 0.15 0.09 72 1012.0
20260508005353 53 325 7.0 9.6 0.00 0.15 0.09 72 1012.0
20260508005252 54 342 7.0 11.3 0.00 0.15 0.09 72 1011.8
20260508005152 54 300 7.0 11.3 0.00 0.15 0.09 72 1011.8
20260508005052 54 300 7.8 11.3 0.00 0.15 0.09 72 1011.8
20260508004954 54 319 7.8 11.3 0.00 0.15 0.09 72 1011.7
20260508004854 54 315 7.8 11.3 0.00 0.15 0.09 72 1011.8
20260508004752 54 299 8.7 13.9 0.00 0.15 0.09 72 1011.8
20260508004652 54 325 8.7 13.9 0.00 0.15 0.09 72 1011.7
20260508004552 54 309 8.7 13.9 0.00 0.15 0.09 72 1011.7
20260508004452 54 319 8.7 13.9 0.00 0.15 0.09 72 1011.6
20260508004353 54 329 8.7 13.9 0.00 0.15 0.09 72 1011.7
20260508004253 54 332 8.7 13.9 0.00 0.15 0.09 72 1011.6
20260508004152 54 311 8.7 13.9 0.00 0.15 0.09 72 1011.6
20260508004054 54 333 7.8 13.9 0.00 0.15 0.09 72 1011.6
20260508003952 54 292 7.8 13.9 0.00 0.15 0.09 72 1011.6
20260508003852 54 314 7.8 13.9 0.00 0.16 0.09 72 1011.6
20260508003752 54 296 7.8 13.0 0.00 0.16 0.09 72 1011.7
20260508003653 54 288 7.8 13.0 0.00 0.16 0.09 72 1011.7
20260508003553 54 333 7.8 13.0 0.00 0.16 0.09 72 1011.7
20260508003452 54 295 7.8 13.0 0.00 0.16 0.09 72 1011.8
20260508003352 54 294 7.8 13.0 0.00 0.16 0.09 72 1011.7
20260508003252 54 297 7.8 12.2 0.00 0.16 0.09 72 1011.7
20260508003154 54 303 8.7 12.2 0.00 0.16 0.09 72 1011.6
20260508003053 54 300 8.7 12.2 0.00 0.16 0.09 72 1011.6
20260508002952 54 294 8.7 13.9 0.00 0.16 0.09 72 1011.7
20260508002852 54 315 9.6 13.9 0.00 0.16 0.09 71 1011.7
20260508002751 54 313 9.6 13.9 0.00 0.16 0.09 72 1011.7
20260508002653 54 288 9.6 13.9 0.00 0.16 0.09 71 1011.6
20260508002553 54 355 9.6 14.8 0.00 0.16 0.09 72 1011.7
20260508002453 54 320 9.6 14.8 0.00 0.16 0.09 72 1011.7
20260508002353 54 336 9.6 14.8 0.00 0.16 0.09 72 1011.6
20260508002248 54 300 9.6 14.8 0.00 0.17 0.09 71 1011.7
20260508002148 54 312 9.6 14.8 0.00 0.17 0.09 71 1011.7
20260508002049 54 300 9.6 14.8 0.00 0.17 0.09 71 1011.6
20260508001948 54 329 9.6 14.8 0.00 0.17 0.09 71 1011.6
20260508001848 54 304 9.6 15.6 0.00 0.17 0.09 71 1011.6
20260508001749 54 280 9.6 15.6 0.00 0.17 0.09 71 1011.6
20260508001646 54 323 8.7 15.6 0.00 0.17 0.09 72 1011.6
20260508001546 55 312 8.7 15.6 0.00 0.17 0.09 73 1011.6
20260508001446 55 317 8.7 15.6 0.00 0.18 0.09 73 1011.7
20260508001348 55 319 8.7 15.6 0.00 0.18 0.09 73 1011.7
20260508001246 55 313 8.7 15.6 0.00 0.18 0.09 73 1011.8
20260508001148 55 302 8.7 15.6 0.00 0.18 0.09 73 1011.8
20260508001043 55 335 8.7 15.6 0.00 0.18 0.09 73 1011.7
20260508000943 55 320 7.8 15.6 0.00 0.18 0.09 73 1011.7
20260508000842 55 300 7.8 13.9 0.00 0.18 0.09 74 1011.7
20260508000742 55 311 7.8 13.9 0.00 0.18 0.09 74 1011.7
20260508000642 55 326 7.8 13.9 0.00 0.18 0.09 74 1011.7
20260508000544 55 296 7.8 13.9 0.00 0.18 0.09 75 1011.7
20260508000442 55 317 7.8 13.9 0.00 0.18 0.09 74 1011.8
20260508000342 55 318 7.8 13.9 0.00 0.18 0.09 74 1011.7
20260508000242 55 292 7.8 13.0 0.00 0.18 0.09 76 1011.8
20260508000140 55 302 7.8 12.2 0.00 0.19 0.09 76 1012.0
20260508000039 55 298 7.8 12.2 0.00 0.19 0.09 76 1011.8
20260507235936 55 318 7.8 12.2 0.00 0.19 0.09 76 1011.8
20260507235836 55 319 7.8 12.2 0.00 0.19 0.09 76 1011.8
20260507235736 55 282 7.8 12.2 0.00 0.19 0.09 76 1011.8
20260507235635 55 306 7.8 12.2 0.00 0.19 0.09 76 1011.7
20260507235537 56 296 7.8 12.2 0.00 0.19 0.09 76 1011.7
20260507235434 56 296 7.8 12.2 0.00 0.19 0.09 76 1011.7
20260507235330 56 324 7.0 11.3 0.00 0.19 0.09 77 1011.6
20260507235230 56 315 7.0 11.3 0.00 0.19 0.09 78 1011.6
20260507235131 56 314 7.0 11.3 0.00 0.19 0.09 78 1011.6
20260507235029 56 355 7.0 11.3 0.00 0.19 0.09 78 1011.7
20260507234930 56 282 7.0 11.3 0.00 0.19 0.09 78 1011.6
20260507234830 56 328 7.0 11.3 0.00 0.19 0.09 78 1011.6
20260507234732 56 320 7.0 11.3 0.00 0.19 0.09 78 1011.7
20260507234630 56 297 6.1 11.3 0.00 0.19 0.09 78 1011.7
20260507234530 56 316 6.1 10.4 0.00 0.19 0.09 79 1011.6
20260507234428 56 309 6.1 10.4 0.00 0.19 0.09 79 1011.6
20260507234329 56 292 7.0 10.4 0.00 0.19 0.09 79 1011.6
20260507234228 56 309 7.0 11.3 0.00 0.19 0.09 79 1011.6
20260507234128 56 269 7.0 11.3 0.00 0.19 0.09 79 1011.6
20260507234030 56 291 7.0 11.3 0.00 0.20 0.09 79 1011.6
20260507233930 56 286 7.0 12.2 0.00 0.20 0.09 79 1011.6
20260507233828 56 327 7.8 12.2 0.00 0.20 0.09 79 1011.6
20260507233728 56 317 7.8 12.2 0.00 0.20 0.09 78 1011.6
20260507233623 56 325 7.8 12.2 0.00 0.20 0.09 78 1011.6
20260507233524 56 306 7.8 12.2 0.00 0.20 0.09 78 1011.6
20260507233424 56 314 8.7 13.9 0.00 0.20 0.09 78 1011.5
20260507233323 56 312 8.7 13.9 0.00 0.20 0.09 78 1011.5
20260507233222 56 328 8.7 13.9 0.00 0.20 0.09 78 1011.5
20260507233118 56 281 8.7 13.9 0.00 0.20 0.09 79 1011.5
20260507233018 56 304 8.7 13.9 0.00 0.20 0.09 79 1011.4
20260507232918 56 311 8.7 13.9 0.00 0.20 0.09 79 1011.5
20260507232817 56 325 8.7 13.9 0.00 0.20 0.09 79 1011.4
20260507232718 56 321 9.6 16.5 0.00 0.20 0.09 79 1011.4
20260507232618 56 313 9.6 17.4 0.00 0.20 0.09 79 1011.3
20260507232518 56 336 9.6 17.4 0.00 0.20 0.09 79 1011.3
20260507232417 56 306 9.6 17.4 0.00 0.20 0.09 78 1011.3
20260507232317 56 314 9.6 17.4 0.00 0.20 0.09 78 1011.3
20260507232217 56 318 9.6 17.4 0.00 0.20 0.09 78 1011.3
20260507232115 56 321 9.6 17.4 0.00 0.20 0.09 78 1011.2
20260507232014 56 304 9.6 17.4 0.00 0.20 0.09 78 1011.3
20260507231914 57 287 9.6 17.4 0.00 0.20 0.09 78 1011.2
20260507231815 57 331 9.6 17.4 0.00 0.20 0.09 78 1011.2
20260507231715 57 314 8.7 17.4 0.00 0.20 0.09 78 1011.2
20260507231615 57 339 8.7 14.8 0.00 0.20 0.09 78 1011.1
20260507231514 57 328 8.7 14.8 0.00 0.20 0.09 78 1011.1
20260507231410 57 325 8.7 14.8 0.00 0.20 0.09 79 1011.2
20260507231309 57 307 8.7 14.8 0.00 0.20 0.09 79 1011.2
20260507231210 57 275 8.7 14.8 0.00 0.20 0.09 78 1011.2
20260507231108 57 327 8.7 14.8 0.00 0.20 0.09 78 1011.1
20260507231009 57 291 8.7 13.9 0.00 0.20 0.09 78 1011.1
20260507230859 57 303 7.8 13.9 0.00 0.20 0.09 79 1011.2
20260507230759 57 319 8.7 13.9 0.00 0.20 0.09 79 1011.1
20260507230659 57 304 8.7 15.6 0.00 0.20 0.09 78 1011.0
20260507230558 57 302 8.7 15.6 0.00 0.20 0.09 78 1011.1
20260507230459 57 329 8.7 15.6 0.00 0.20 0.09 78 1011.0
20260507230353 58 295 8.7 15.6 0.00 0.20 0.09 78 1011.1
20260507230254 58 315 8.7 15.6 0.00 0.20 0.09 78 1011.1
20260507230153 58 290 8.7 15.6 0.00 0.20 0.09 78 1011.0
20260507230053 58 311 8.7 15.6 0.00 0.20 0.09 78 1011.1
20260507225953 58 301 8.7 15.6 0.00 0.20 0.09 78 1011.0
20260507225849 58 323 8.7 15.6 0.00 0.20 0.09 78 1011.1
20260507225746 58 306 8.7 14.8 0.00 0.20 0.09 78 1011.0
20260507225647 58 319 8.7 14.8 0.00 0.20 0.09 78 1011.0
20260507225547 58 317 7.8 14.8 0.00 0.20 0.09 79 1010.9
20260507225447 58 331 7.8 14.8 0.00 0.20 0.09 79 1010.9
20260507225336 58 308 7.8 14.8 0.00 0.20 0.09 79 1010.9
20260507225236 58 304 7.8 13.9 0.00 0.20 0.09 79 1011.0
20260507225136 58 331 7.8 13.9 0.00 0.20 0.09 79 1011.0
20260507225037 58 319 7.8 13.9 0.00 0.20 0.09 80 1011.0
20260507224935 58 303 7.8 13.9 0.00 0.20 0.09 80 1011.0
20260507224829 57 311 7.8 13.9 0.00 0.20 0.09 80 1010.9
20260507224729 57 329 8.7 13.9 0.00 0.20 0.09 80 1010.9
20260507224629 57 325 8.7 13.9 0.00 0.20 0.09 80 1010.9
20260507224528 57 327 8.7 13.9 0.00 0.20 0.09 81 1011.0
20260507224428 57 314 7.8 13.9 0.00 0.20 0.09 81 1011.1
20260507224323 57 331 7.8 13.9 0.00 0.20 0.09 80 1011.0
20260507224223 57 319 7.8 13.9 0.00 0.20 0.09 80 1011.0
20260507224123 57 298 7.8 13.9 0.00 0.20 0.09 80 1011.0
20260507224024 57 315 7.8 13.9 0.00 0.20 0.09 80 1010.9
20260507223922 57 304 7.0 13.9 0.00 0.20 0.09 80 1011.0
20260507223813 57 309 7.0 13.9 0.00 0.20 0.09 80 1010.9
20260507223713 57 336 7.0 11.3 0.00 0.20 0.09 81 1011.0
20260507223613 57 344 7.0 11.3 0.00 0.20 0.09 81 1010.9
20260507223512 58 298 6.1 11.3 0.00 0.20 0.09 82 1011.0
20260507223413 58 336 6.1 11.3 0.00 0.20 0.09 81 1011.0
20260507223307 58 308 7.0 15.6 0.00 0.20 0.09 82 1010.9
20260507223207 58 319 7.0 15.6 0.00 0.20 0.09 82 1010.9
20260507223107 58 316 7.0 15.6 0.00 0.20 0.09 82 1010.9
20260507223007 58 319 7.0 15.6 0.00 0.20 0.09 82 1010.9
20260507222907 58 298 7.8 15.6 0.00 0.20 0.09 81 1010.9
20260507222801 58 325 7.8 15.6 0.00 0.20 0.09 82 1010.9
20260507222701 58 305 7.8 15.6 0.00 0.20 0.09 82 1010.8
20260507222601 58 306 7.8 15.6 0.00 0.20 0.09 82 1010.8
20260507222500 58 333 8.7 15.6 0.00 0.20 0.09 82 1010.8
20260507222400 58 334 8.7 15.6 0.00 0.20 0.09 82 1010.7
20260507222250 59 301 7.8 13.9 0.00 0.20 0.09 84 1010.6
20260507222150 59 300 7.8 12.2 0.00 0.20 0.09 84 1010.6
20260507222051 59 282 7.8 12.2 0.00 0.20 0.09 84 1010.6
20260507221951 59 355 7.8 12.2 0.00 0.20 0.09 85 1010.7
20260507221850 59 324 7.8 12.2 0.00 0.20 0.09 85 1010.6
20260507221746 59 338 7.0 12.2 0.00 0.20 0.09 85 1010.6
20260507221646 59 28 7.0 12.2 0.00 0.20 0.09 85 1010.6
20260507221547 60 311 6.1 11.3 0.00 0.20 0.09 86 1010.7
20260507221446 60 334 6.1 10.4 0.00 0.20 0.09 86 1010.6
20260507221344 60 319 6.1 10.4 0.00 0.20 0.09 86 1010.6
20260507221239 60 351 6.1 10.4 0.00 0.20 0.09 85 1010.6
20260507221138 60 325 5.2 10.4 0.00 0.20 0.09 85 1010.5
20260507221039 60 351 5.2 10.4 0.00 0.20 0.09 85 1010.5
20260507220940 60 313 5.2 10.4 0.00 0.20 0.09 85 1010.6
20260507220838 60 336 4.3 10.4 0.00 0.20 0.09 85 1010.4
20260507220729 60 355 4.3 8.7 0.00 0.20 0.09 85 1010.5
20260507220628 60 348 4.3 8.7 0.00 0.20 0.09 85 1010.4
20260507220529 60 13 4.3 8.7 0.00 0.20 0.09 85 1010.4
20260507220428 61 334 3.5 8.7 0.00 0.20 0.09 85 1010.4
20260507220329 61 335 3.5 7.8 0.00 0.20 0.09 85 1010.5
20260507220222 61 333 3.5 7.0 0.00 0.20 0.09 85 1010.2
20260507220122 61 312 2.6 7.0 0.00 0.20 0.09 84 1010.4
20260507220022 61 310 2.6 7.0 0.00 0.20 0.09 84 1010.5
20260507215923 61 309 2.6 7.0 0.00 0.20 0.09 84 1010.4
20260507215822 61 328 2.6 7.8 0.00 0.20 0.09 84 1010.4
20260507215722 61 22 3.5 7.8 0.00 0.20 0.09 84 1010.2
20260507215621 61 0 3.5 7.8 0.00 0.20 0.09 83 1010.2
20260507215520 61 19 3.5 7.8 0.00 0.20 0.09 84 1010.1
20260507215419 61 9 3.5 7.8 0.00 0.20 0.09 84 1010.2
20260507215317 61 14 3.5 7.8 0.00 0.20 0.09 84 1010.4
20260507215207 61 344 3.5 7.8 0.00 0.20 0.09 83 1010.4
20260507215108 61 347 3.5 7.8 0.00 0.20 0.09 84 1010.2
20260507215007 61 348 3.5 7.8 0.00 0.20 0.09 84 1010.2
20260507214906 61 346 3.5 7.8 0.00 0.20 0.09 84 1010.1
20260507214806 61 321 3.5 7.0 0.00 0.20 0.09 84 1010.1
20260507214702 61 40 3.5 7.0 0.00 0.20 0.09 84 1010.1
20260507214601 61 11 3.5 7.0 0.00 0.20 0.09 84 1010.0
20260507214501 61 30 3.5 7.0 0.00 0.20 0.09 84 1010.1
20260507214401 61 31 3.5 7.0 0.00 0.20 0.09 84 1010.0
20260507214301 61 5 3.5 7.0 0.00 0.20 0.09 84 1010.0
20260507214158 61 30 3.5 7.0 0.00 0.20 0.09 84 1010.0
20260507214058 61 38 2.6 7.0 0.00 0.20 0.09 84 1010.0
20260507213957 62 53 2.6 7.0 0.00 0.20 0.09 84 1010.0
20260507213857 61 355 2.6 7.0 0.00 0.20 0.09 84 1010.1
20260507213754 62 25 2.6 6.1 0.00 0.20 0.09 84 1010.1
20260507213649 62 21 2.6 6.1 0.00 0.20 0.09 83 1010.2
20260507213548 62 46 2.6 6.1 0.00 0.20 0.09 83 1010.1
20260507213447 62 32 2.6 6.1 0.00 0.20 0.09 84 1010.1
20260507213345 62 38 2.6 6.1 0.00 0.20 0.09 84 1010.0
20260507213246 62 49 3.5 7.0 0.00 0.20 0.09 84 1010.1
20260507213145 62 79 3.5 7.0 0.00 0.20 0.09 84 1010.0
20260507213042 62 80 3.5 7.0 0.00 0.20 0.09 83 1010.0
20260507212943 62 78 2.6 7.0 0.00 0.20 0.09 83 1009.9
20260507212841 62 55 2.6 7.0 0.00 0.20 0.09 83 1009.8
20260507212739 62 80 2.6 7.0 0.00 0.20 0.09 83 1009.8
20260507212634 62 78 2.6 7.0 0.00 0.20 0.09 83 1009.8
20260507212531 62 59 2.6 7.0 0.00 0.20 0.09 83 1009.7
20260507212433 62 67 1.7 7.0 0.00 0.20 0.09 83 1009.8
20260507212334 62 86 1.7 7.0 0.00 0.20 0.09 84 1009.7
20260507212233 62 63 0.9 4.3 0.00 0.20 0.09 84 1009.8
20260507212123 62 63 0.9 4.3 0.00 0.20 0.09 85 1009.8
20260507212022 62 71 0.9 4.3 0.00 0.20 0.09 84 1009.8
20260507211923 62 28 0.9 4.3 0.00 0.20 0.09 84 1009.8
20260507211823 62 39 0.9 4.3 0.00 0.20 0.09 84 1009.9
20260507211722 62 40 0.9 4.3 0.00 0.20 0.09 84 1009.9
20260507211619 62 34 0.9 4.3 0.00 0.20 0.09 84 1009.8
20260507211517 62 59 0.0 3.5 0.00 0.20 0.09 84 1009.9
20260507211417 62 99 0.9 7.8 0.00 0.20 0.09 84 1009.7
20260507211316 62 36 0.9 7.8 0.00 0.20 0.09 84 1009.7
20260507211217 62 32 0.9 7.8 0.00 0.20 0.09 84 1009.6
20260507211115 62 22 0.9 7.8 0.00 0.20 0.09 84 1009.6
20260507211015 62 5 0.9 7.8 0.00 0.20 0.09 84 1009.6
20260507210914 62 0 0.9 7.8 0.00 0.20 0.09 84 1009.7
20260507210812 62 0 0.9 7.8 0.00 0.20 0.09 84 1009.7
20260507210711 62 5 0.9 7.8 0.00 0.20 0.09 84 1009.6
20260507210601 62 26 0.9 7.8 0.00 0.20 0.09 85 1009.5
20260507210500 62 319 0.9 7.8 0.00 0.20 0.09 85 1009.5
20260507210401 62 351 0.0 3.5 0.00 0.20 0.09 86 1009.5
20260507210259 62 340 0.0 3.5 0.00 0.20 0.09 86 1009.5
20260507210201 62 55 0.0 3.5 0.00 0.20 0.09 84 1009.4
20260507210100 62 61 0.0 3.5 0.00 0.20 0.09 84 1009.4
20260507205959 62 53 0.0 3.5 0.00 0.20 0.09 84 1009.3
20260507205859 62 74 0.0 3.5 0.00 0.20 0.09 84 1009.3
20260507205757 62 71 0.0 3.5 0.00 0.20 0.09 85 1009.3
20260507205655 62 71 0.0 3.5 0.00 0.20 0.09 85 1009.2
20260507205549 62 22 0.0 3.5 0.00 0.20 0.09 85 1009.2
20260507205447 62 69 0.0 2.6 0.00 0.20 0.09 84 1009.3
20260507205349 62 70 0.0 2.6 0.00 0.20 0.09 85 1009.3
20260507205247 62 77 0.0 2.6 0.00 0.20 0.09 86 1009.3
20260507205148 62 22 0.0 2.6 0.00 0.20 0.09 86 1009.3
20260507205040 62 5 0.0 4.3 0.00 0.20 0.09 85 1009.3
20260507204940 62 355 0.0 4.3 0.00 0.20 0.09 85 1009.3
20260507204841 62 339 0.0 4.3 0.00 0.20 0.09 85 1009.3
20260507204740 62 13 0.0 4.3 0.00 0.20 0.09 85 1009.3
20260507204638 62 21 0.0 4.3 0.00 0.20 0.09 84 1009.3
20260507204537 62 39 0.0 4.3 0.00 0.20 0.09 85 1009.3
20260507204437 62 350 0.0 4.3 0.00 0.20 0.09 85 1009.3
20260507204335 62 28 0.0 4.3 0.00 0.20 0.09 85 1009.3
20260507204235 62 65 0.0 4.3 0.00 0.20 0.09 85 1009.3
20260507204132 62 90 0.0 4.3 0.00 0.20 0.09 85 1009.3
20260507204028 62 54 0.0 0.9 0.00 0.20 0.09 85 1009.3
20260507203926 63 49 0.0 0.9 0.00 0.20 0.09 85 1009.3
20260507203827 63 49 0.0 0.9 0.00 0.20 0.09 84 1009.4
20260507203726 63 72 0.0 0.9 0.00 0.20 0.09 84 1009.4
20260507203627 63 74 0.0 0.9 0.00 0.20 0.09 84 1009.3
20260507203520 63 60 0.0 0.9 0.00 0.20 0.09 85 1009.3
20260507203421 63 49 0.0 0.9 0.00 0.20 0.09 85 1009.2
20260507203318 63 46 0.0 0.9 0.00 0.20 0.09 85 1009.2
20260507203219 63 59 0.0 0.9 0.00 0.20 0.09 85 1009.3
20260507203117 63 78 0.0 0.0 0.00 0.20 0.09 85 1009.2
20260507203013 63 96 0.0 0.9 0.00 0.20 0.09 85 1009.3
20260507202910 63 90 0.0 1.7 0.00 0.20 0.09 85 1009.2
20260507202810 63 86 0.0 1.7 0.00 0.20 0.09 85 1009.2
20260507202711 63 57 0.0 1.7 0.00 0.20 0.09 85 1009.2
20260507202610 63 75 0.0 2.6 0.00 0.20 0.09 85 1009.1
20260507202505 63 63 0.9 2.6 0.00 0.20 0.09 85 1009.2
20260507202403 63 61 0.9 3.5 0.00 0.20 0.09 85 1009.1
20260507202307 63 105 0.9 7.0 0.00 0.20 0.09 85 1009.2
20260507202205 63 72 0.9 7.0 0.00 0.20 0.09 85 1009.2
20260507202104 63 82 1.7 7.0 0.00 0.20 0.09 85 1009.2
20260507201958 63 88 2.6 7.0 0.00 0.20 0.09 86 1009.3
20260507201857 63 40 2.6 7.8 0.00 0.20 0.09 86 1009.2
20260507201759 63 51 3.5 7.8 0.00 0.20 0.09 86 1009.1
20260507201657 63 76 3.5 7.8 0.00 0.20 0.09 86 1009.1
20260507201555 63 63 4.3 7.8 0.00 0.20 0.09 86 1009.1
20260507201454 63 57 4.3 8.7 0.00 0.20 0.09 85 1009.1
20260507201353 63 78 4.3 8.7 0.00 0.20 0.09 85 1009.0
20260507201252 63 86 4.3 8.7 0.00 0.20 0.09 85 1009.0
20260507201151 63 82 4.3 8.7 0.00 0.20 0.09 85 1009.0
20260507201048 63 87 5.2 8.7 0.00 0.20 0.09 85 1009.0
20260507200946 63 74 4.3 8.7 0.00 0.20 0.09 85 1009.1
20260507200846 63 67 4.3 8.7 0.00 0.20 0.09 85 1009.1
20260507200744 63 55 5.2 8.7 0.00 0.20 0.09 85 1009.1
20260507200645 63 44 5.2 8.7 0.00 0.20 0.09 86 1009.0
20260507200543 63 40 5.2 8.7 0.00 0.20 0.09 86 1009.0
20260507200435 63 94 4.3 8.7 0.00 0.20 0.09 86 1009.0
20260507200332 63 72 3.5 8.7 0.00 0.20 0.09 86 1009.1
20260507200233 63 78 3.5 8.7 0.00 0.20 0.09 86 1009.0
20260507200132 63 78 2.6 8.7 0.00 0.20 0.09 86 1009.0
20260507200032 63 34 2.6 8.7 0.00 0.20 0.09 85 1009.1
20260507195929 63 76 1.7 7.8 0.00 0.20 0.09 85 1009.1
20260507195826 63 77 1.7 7.8 0.00 0.20 0.09 86 1009.1
20260507195726 63 76 0.9 7.8 0.00 0.20 0.09 86 1009.1
20260507195627 63 63 0.9 7.8 0.00 0.20 0.09 85 1009.1
20260507195527 63 43 0.0 4.3 0.00 0.20 0.09 85 1009.2
20260507195421 63 57 0.9 5.2 0.00 0.20 0.09 86 1009.1
20260507195319 63 63 0.9 7.0 0.00 0.20 0.09 86 1009.0
20260507195221 63 27 1.7 7.0 0.00 0.20 0.09 87 1009.2
20260507195120 63 55 1.7 7.8 0.00 0.20 0.09 87 1009.1
20260507195021 63 44 2.6 7.8 0.00 0.20 0.09 87 1009.2
20260507194911 63 38 3.5 9.6 0.00 0.20 0.09 88 1009.2
20260507194810 62 45 4.3 9.6 0.00 0.20 0.09 88 1009.2
20260507194711 62 86 4.3 9.6 0.00 0.20 0.09 88 1009.2
20260507194611 62 42 5.2 9.6 0.00 0.20 0.09 88 1009.2
20260507194511 62 43 5.2 9.6 0.00 0.20 0.09 87 1009.2
20260507194405 62 93 5.2 9.6 0.00 0.20 0.09 87 1009.2
20260507194305 62 95 5.2 9.6 0.00 0.20 0.09 87 1009.1
20260507194205 62 103 5.2 9.6 0.00 0.20 0.09 87 1009.2
20260507194105 62 78 5.2 9.6 0.00 0.20 0.09 87 1009.2
20260507194005 62 82 4.3 9.6 0.00 0.20 0.09 87 1009.2
20260507193859 62 89 4.3 9.6 0.00 0.20 0.09 88 1009.2
20260507193759 62 77 4.3 9.6 0.00 0.20 0.09 88 1009.2
20260507193658 61 98 5.2 9.6 0.00 0.20 0.09 88 1009.2
20260507193559 61 98 5.2 9.6 0.00 0.20 0.09 88 1009.3
20260507193458 61 93 5.2 9.6 0.00 0.20 0.09 88 1009.3
20260507193349 61 67 5.2 9.6 0.00 0.20 0.09 88 1009.3
20260507193248 61 57 5.2 11.3 0.00 0.20 0.09 89 1009.3
20260507193149 61 71 5.2 11.3 0.00 0.20 0.09 90 1009.2
20260507193047 61 88 5.2 11.3 0.00 0.20 0.09 90 1009.3
20260507192949 61 96 6.1 11.3 0.00 0.20 0.09 89 1009.3
20260507192843 61 98 6.1 11.3 0.00 0.20 0.09 90 1009.4